Time,TemperatureF,DewpointF,PressureIn,WindDirection,WindDirectionDegrees,WindSpeedMPH,WindSpeedGustMPH,Humidity,HourlyPrecipIn,Conditions,Clouds,dailyrainin,SoftwareType,DateUTC
2013-07-09 00:01:00,73.4,70.0,30.03,WSW,248,0.9,1.3,89,0.00,,,0.00,WUHU216HW,2013-07-09 04:01:00,
2013-07-09 00:02:00,73.4,70.0,30.03,WSW,248,0.7,1.3,89,0.00,,,0.00,WUHU216HW,2013-07-09 04:02:00,
2013-07-09 00:06:00,73.3,69.8,30.02,SW,225,0.0,1.3,89,0.00,,,0.00,WUHU216HW,2013-07-09 04:06:00,
2013-07-09 00:07:00,73.3,69.8,30.02,SW,225,0.0,1.3,89,0.00,,,0.00,WUHU216HW,2013-07-09 04:07:00,
2013-07-09 00:12:00,73.1,69.3,30.02,SW,225,0.4,0.7,88,0.00,,,0.00,WUHU216HW,2013-07-09 04:12:00,
2013-07-09 00:13:00,73.1,69.3,30.02,SSW,203,0.4,0.4,88,0.00,,,0.00,WUHU216HW,2013-07-09 04:13:00,
2013-07-09 00:16:00,72.9,69.1,30.02,SSW,203,0.0,0.4,88,0.00,,,0.00,WUHU216HW,2013-07-09 04:16:00,
2013-07-09 00:17:00,72.9,69.1,30.02,SSW,203,0.0,0.4,88,0.00,,,0.00,WUHU216HW,2013-07-09 04:17:00,
2013-07-09 00:18:00,72.9,69.1,30.02,SSW,203,0.0,0.4,88,0.00,,,0.00,WUHU216HW,2013-07-09 04:18:00,
2013-07-09 00:22:00,72.7,68.9,30.02,SSW,203,0.0,0.4,88,0.00,,,0.00,WUHU216HW,2013-07-09 04:22:00,
2013-07-09 00:23:00,72.7,68.9,30.02,SSW,203,0.0,0.4,88,0.00,,,0.00,WUHU216HW,2013-07-09 04:23:00,
2013-07-09 00:24:00,72.7,69.3,30.02,SSW,203,0.0,0.2,89,0.00,,,0.00,WUHU216HW,2013-07-09 04:24:00,
2013-07-09 00:25:00,72.7,69.3,30.02,SSW,203,0.0,0.0,89,0.00,,,0.00,WUHU216HW,2013-07-09 04:25:00,
2013-07-09 00:28:00,72.5,69.1,30.02,SSW,203,0.0,0.0,89,0.00,,,0.00,WUHU216HW,2013-07-09 04:28:00,
2013-07-09 00:29:00,72.5,69.1,30.03,SSW,203,0.0,0.0,89,0.00,,,0.00,WUHU216HW,2013-07-09 04:29:00,
2013-07-09 00:30:00,72.5,69.1,30.03,SSW,203,0.0,0.0,89,0.00,,,0.00,WUHU216HW,2013-07-09 04:30:00,
2013-07-09 00:31:00,72.4,68.9,30.03,SSW,203,0.0,0.0,89,0.00,,,0.00,WUHU216HW,2013-07-09 04:31:00,
2013-07-09 00:33:00,72.4,68.9,30.03,SSW,203,0.0,0.0,89,0.00,,,0.00,WUHU216HW,2013-07-09 04:33:00,
2013-07-09 00:34:00,72.4,68.9,30.03,SSW,203,0.0,0.0,89,0.00,,,0.00,WUHU216HW,2013-07-09 04:34:00,
2013-07-09 00:35:00,72.4,68.9,30.03,SSW,203,0.0,0.0,89,0.00,,,0.00,WUHU216HW,2013-07-09 04:35:00,
2013-07-09 00:36:00,72.4,68.9,30.03,SW,225,0.0,0.0,89,0.00,,,0.00,WUHU216HW,2013-07-09 04:36:00,
2013-07-09 00:39:00,72.4,68.9,30.03,SW,225,0.0,0.0,89,0.00,,,0.00,WUHU216HW,2013-07-09 04:39:00,
2013-07-09 00:41:00,72.4,68.9,30.03,SW,225,0.0,0.0,89,0.00,,,0.00,WUHU216HW,2013-07-09 04:41:00,
2013-07-09 00:42:00,72.4,68.9,30.03,SW,225,0.0,0.0,89,0.00,,,0.00,WUHU216HW,2013-07-09 04:42:00,
2013-07-09 00:43:00,72.4,68.9,30.03,SW,225,0.0,0.0,89,0.00,,,0.00,WUHU216HW,2013-07-09 04:43:00,
2013-07-09 00:47:00,72.4,69.3,30.03,SSW,203,0.0,0.0,90,0.00,,,0.00,WUHU216HW,2013-07-09 04:47:00,
2013-07-09 00:48:00,72.4,69.3,30.03,SSW,203,0.0,0.0,90,0.00,,,0.00,WUHU216HW,2013-07-09 04:48:00,
2013-07-09 00:49:00,72.4,69.3,30.03,SSW,203,0.0,0.0,90,0.00,,,0.00,WUHU216HW,2013-07-09 04:49:00,
2013-07-09 00:52:00,72.4,69.3,30.03,SSW,203,0.0,0.0,90,0.00,,,0.00,WUHU216HW,2013-07-09 04:52:00,
2013-07-09 00:54:00,72.4,69.3,30.03,SSW,203,0.0,0.0,90,0.00,,,0.00,WUHU216HW,2013-07-09 04:54:00,
2013-07-09 00:57:00,72.2,69.1,30.03,SSW,203,0.0,0.0,90,0.00,,,0.00,WUHU216HW,2013-07-09 04:57:00,
2013-07-09 00:58:00,72.0,68.9,30.03,SSW,203,0.0,0.0,90,0.00,,,0.00,WUHU216HW,2013-07-09 04:58:00,
2013-07-09 00:59:00,72.0,68.9,30.03,SW,225,0.0,0.0,90,0.00,,,0.00,WUHU216HW,2013-07-09 04:59:00,
2013-07-09 01:01:00,72.0,68.9,30.03,SW,225,0.0,0.0,90,0.00,,,0.00,WUHU216HW,2013-07-09 05:01:00,
2013-07-09 01:02:00,72.0,68.9,30.03,SW,225,0.0,0.0,90,0.00,,,0.00,WUHU216HW,2013-07-09 05:02:00,
2013-07-09 01:03:00,72.0,68.9,30.03,SW,225,0.0,0.0,90,0.00,,,0.00,WUHU216HW,2013-07-09 05:03:00,
2013-07-09 01:04:00,72.0,68.9,30.03,SW,225,0.0,0.0,90,0.00,,,0.00,WUHU216HW,2013-07-09 05:04:00,
2013-07-09 01:06:00,72.0,68.9,30.02,SW,225,0.0,0.0,90,0.00,,,0.00,WUHU216HW,2013-07-09 05:06:00,
2013-07-09 01:07:00,71.8,68.8,30.03,SW,225,0.0,0.0,90,0.00,,,0.00,WUHU216HW,2013-07-09 05:07:00,
2013-07-09 01:08:00,71.8,68.8,30.02,SW,225,0.0,0.0,90,0.00,,,0.00,WUHU216HW,2013-07-09 05:08:00,
2013-07-09 01:09:00,71.8,68.8,30.02,SW,225,0.0,0.0,90,0.00,,,0.00,WUHU216HW,2013-07-09 05:09:00,
2013-07-09 01:10:00,71.8,68.8,30.03,SW,225,0.0,0.0,90,0.00,,,0.00,WUHU216HW,2013-07-09 05:10:00,
2013-07-09 01:11:00,71.8,68.8,30.03,SW,225,0.0,0.0,90,0.00,,,0.00,WUHU216HW,2013-07-09 05:11:00,
2013-07-09 01:12:00,71.8,68.8,30.03,SW,225,0.0,0.0,90,0.00,,,0.00,WUHU216HW,2013-07-09 05:12:00,
2013-07-09 01:14:00,71.8,68.8,30.03,SW,225,0.0,0.0,90,0.00,,,0.00,WUHU216HW,2013-07-09 05:14:00,
2013-07-09 01:16:00,71.8,68.8,30.03,SW,225,0.0,0.0,90,0.00,,,0.00,WUHU216HW,2013-07-09 05:16:00,
2013-07-09 01:18:00,71.8,68.8,30.03,SW,225,0.0,0.0,90,0.00,,,0.00,WUHU216HW,2013-07-09 05:18:00,
2013-07-09 01:19:00,71.8,68.8,30.03,SW,225,0.0,0.0,90,0.00,,,0.00,WUHU216HW,2013-07-09 05:19:00,
2013-07-09 01:21:00,71.6,68.6,30.03,SW,225,0.0,0.0,90,0.00,,,0.00,WUHU216HW,2013-07-09 05:21:00,
2013-07-09 01:23:00,71.6,68.6,30.02,SW,225,0.0,0.0,90,0.00,,,0.00,WUHU216HW,2013-07-09 05:23:00,
2013-07-09 01:24:00,71.6,68.6,30.03,SW,225,0.0,0.0,90,0.00,,,0.00,WUHU216HW,2013-07-09 05:24:00,
2013-07-09 01:26:00,71.6,68.6,30.02,SE,135,0.0,0.0,90,0.00,,,0.00,WUHU216HW,2013-07-09 05:26:00,
2013-07-09 01:29:00,71.6,68.6,30.02,SE,135,0.0,0.0,90,0.00,,,0.00,WUHU216HW,2013-07-09 05:29:00,
2013-07-09 01:30:00,71.6,68.6,30.03,SE,135,0.0,0.0,90,0.00,,,0.00,WUHU216HW,2013-07-09 05:30:00,
2013-07-09 01:32:00,71.6,68.6,30.03,SE,135,0.0,0.0,90,0.00,,,0.00,WUHU216HW,2013-07-09 05:32:00,
2013-07-09 01:33:00,71.6,68.6,30.02,SE,135,0.0,0.0,90,0.00,,,0.00,WUHU216HW,2013-07-09 05:33:00,
2013-07-09 01:34:00,71.6,68.6,30.02,SE,135,0.0,0.0,90,0.00,,,0.00,WUHU216HW,2013-07-09 05:34:00,
2013-07-09 01:35:00,71.6,68.6,30.02,SE,135,0.0,0.0,90,0.00,,,0.00,WUHU216HW,2013-07-09 05:35:00,
2013-07-09 01:38:00,71.5,68.4,30.02,SE,135,0.4,0.4,90,0.00,,,0.00,WUHU216HW,2013-07-09 05:38:00,
2013-07-09 01:39:00,71.5,68.4,30.02,SE,135,0.3,0.4,90,0.00,,,0.00,WUHU216HW,2013-07-09 05:39:00,
2013-07-09 01:40:00,71.5,68.4,30.02,SE,135,0.3,0.4,90,0.00,,,0.00,WUHU216HW,2013-07-09 05:40:00,
2013-07-09 01:41:00,71.5,68.4,30.02,SE,135,0.2,0.4,90,0.00,,,0.00,WUHU216HW,2013-07-09 05:41:00,
2013-07-09 01:43:00,71.3,68.5,30.02,SE,135,0.0,0.4,91,0.00,,,0.00,WUHU216HW,2013-07-09 05:43:00,
2013-07-09 01:44:00,71.5,68.7,30.02,SE,135,0.0,0.4,91,0.00,,,0.00,WUHU216HW,2013-07-09 05:44:00,
2013-07-09 01:46:00,71.5,68.7,30.02,SE,135,0.0,0.4,91,0.00,,,0.00,WUHU216HW,2013-07-09 05:46:00,
2013-07-09 01:49:00,71.6,68.9,30.02,SE,135,0.0,0.4,91,0.00,,,0.00,WUHU216HW,2013-07-09 05:49:00,
2013-07-09 01:50:00,71.6,68.9,30.02,SE,135,0.0,0.0,91,0.00,,,0.00,WUHU216HW,2013-07-09 05:50:00,
2013-07-09 01:51:00,71.6,68.9,30.02,SE,135,0.0,0.0,91,0.00,,,0.00,WUHU216HW,2013-07-09 05:51:00,
2013-07-09 01:54:00,71.6,68.9,30.02,SE,135,0.0,0.0,91,0.00,,,0.00,WUHU216HW,2013-07-09 05:54:00,
2013-07-09 01:55:00,71.6,68.9,30.02,SE,135,0.0,0.0,91,0.00,,,0.00,WUHU216HW,2013-07-09 05:55:00,
2013-07-09 01:56:00,71.6,68.9,30.02,SE,135,0.0,0.0,91,0.00,,,0.00,WUHU216HW,2013-07-09 05:56:00,
2013-07-09 01:58:00,71.6,68.9,30.02,SE,135,0.0,0.0,91,0.00,,,0.00,WUHU216HW,2013-07-09 05:58:00,
2013-07-09 01:59:00,71.6,68.9,30.02,SE,135,0.0,0.0,91,0.00,,,0.00,WUHU216HW,2013-07-09 05:59:00,
2013-07-09 02:01:00,71.6,68.9,30.02,SE,135,0.0,0.0,91,0.00,,,0.00,WUHU216HW,2013-07-09 06:01:00,
2013-07-09 02:02:00,71.6,68.9,30.02,SE,135,0.0,0.0,91,0.00,,,0.00,WUHU216HW,2013-07-09 06:02:00,
2013-07-09 02:04:00,71.6,68.9,30.02,SE,135,0.0,0.0,91,0.00,,,0.00,WUHU216HW,2013-07-09 06:04:00,
2013-07-09 02:05:00,71.6,68.9,30.02,SE,135,0.0,0.0,91,0.00,,,0.00,WUHU216HW,2013-07-09 06:05:00,
2013-07-09 02:06:00,71.6,68.9,30.02,SE,135,0.0,0.0,91,0.00,,,0.00,WUHU216HW,2013-07-09 06:06:00,
2013-07-09 02:07:00,71.6,68.9,30.02,SE,135,0.0,0.0,91,0.00,,,0.00,WUHU216HW,2013-07-09 06:07:00,
2013-07-09 02:10:00,71.6,68.9,30.02,SE,135,0.0,0.0,91,0.00,,,0.00,WUHU216HW,2013-07-09 06:10:00,
2013-07-09 02:11:00,71.6,68.9,30.02,SE,135,0.0,0.0,91,0.00,,,0.00,WUHU216HW,2013-07-09 06:11:00,
2013-07-09 02:13:00,71.6,68.9,30.02,SE,135,0.0,0.0,91,0.00,,,0.00,WUHU216HW,2013-07-09 06:13:00,
2013-07-09 02:15:00,71.5,68.7,30.02,SE,135,0.0,0.0,91,0.00,,,0.00,WUHU216HW,2013-07-09 06:15:00,
2013-07-09 02:16:00,71.5,68.7,30.02,SE,135,0.0,0.0,91,0.00,,,0.00,WUHU216HW,2013-07-09 06:16:00,
2013-07-09 02:17:00,71.5,68.7,30.02,SE,135,0.0,0.0,91,0.00,,,0.00,WUHU216HW,2013-07-09 06:17:00,
2013-07-09 02:18:00,71.3,68.5,30.02,SE,135,0.0,0.0,91,0.00,,,0.00,WUHU216HW,2013-07-09 06:18:00,
2013-07-09 02:20:00,71.3,68.5,30.02,SE,135,0.0,0.0,91,0.00,,,0.00,WUHU216HW,2013-07-09 06:20:00,
2013-07-09 02:22:00,71.3,68.5,30.02,SE,135,0.0,0.0,91,0.00,,,0.00,WUHU216HW,2013-07-09 06:22:00,
2013-07-09 02:23:00,71.3,68.5,30.02,SE,135,0.0,0.0,91,0.00,,,0.00,WUHU216HW,2013-07-09 06:23:00,
2013-07-09 02:24:00,71.3,68.5,30.02,SE,135,0.0,0.0,91,0.00,,,0.00,WUHU216HW,2013-07-09 06:24:00,
2013-07-09 02:25:00,71.3,68.5,30.02,SE,135,0.0,0.0,91,0.00,,,0.00,WUHU216HW,2013-07-09 06:25:00,
2013-07-09 02:28:00,71.3,68.5,30.02,SE,135,0.0,0.0,91,0.00,,,0.00,WUHU216HW,2013-07-09 06:28:00,
2013-07-09 02:29:00,71.3,68.5,30.02,SE,135,0.0,0.0,91,0.00,,,0.00,WUHU216HW,2013-07-09 06:29:00,
2013-07-09 02:30:00,71.3,68.5,30.02,SE,135,0.0,0.0,91,0.00,,,0.00,WUHU216HW,2013-07-09 06:30:00,
2013-07-09 02:31:00,71.3,68.5,30.02,SE,135,0.0,0.0,91,0.00,,,0.00,WUHU216HW,2013-07-09 06:31:00,
2013-07-09 02:34:00,71.1,68.3,30.02,SE,135,0.0,0.0,91,0.00,,,0.00,WUHU216HW,2013-07-09 06:34:00,
2013-07-09 02:35:00,71.1,68.3,30.02,SE,135,0.0,0.0,91,0.00,,,0.00,WUHU216HW,2013-07-09 06:35:00,
2013-07-09 02:36:00,71.1,68.3,30.02,SE,135,0.0,0.0,91,0.00,,,0.00,WUHU216HW,2013-07-09 06:36:00,
2013-07-09 02:39:00,71.1,68.3,30.02,SE,135,0.0,0.0,91,0.00,,,0.00,WUHU216HW,2013-07-09 06:39:00,
2013-07-09 02:41:00,71.1,68.3,30.02,SE,135,0.0,0.0,91,0.00,,,0.00,WUHU216HW,2013-07-09 06:41:00,
2013-07-09 02:42:00,70.9,68.1,30.02,SE,135,0.0,0.0,91,0.00,,,0.00,WUHU216HW,2013-07-09 06:42:00,
2013-07-09 02:43:00,70.9,68.1,30.02,WSW,248,0.0,0.0,91,0.00,,,0.00,WUHU216HW,2013-07-09 06:43:00,
2013-07-09 02:44:00,70.9,68.1,30.02,WSW,248,0.0,0.0,91,0.00,,,0.00,WUHU216HW,2013-07-09 06:44:00,
2013-07-09 02:46:00,70.9,68.1,30.02,WSW,248,0.0,0.0,91,0.00,,,0.00,WUHU216HW,2013-07-09 06:46:00,
2013-07-09 02:47:00,70.9,68.1,30.02,WSW,248,0.0,0.0,91,0.00,,,0.00,WUHU216HW,2013-07-09 06:47:00,
2013-07-09 02:48:00,70.9,68.1,30.02,WSW,248,0.0,0.0,91,0.00,,,0.00,WUHU216HW,2013-07-09 06:48:00,
2013-07-09 02:49:00,70.9,68.1,30.01,WSW,248,0.0,0.0,91,0.00,,,0.00,WUHU216HW,2013-07-09 06:49:00,
2013-07-09 02:53:00,70.9,68.1,30.02,SE,135,0.0,0.0,91,0.00,,,0.00,WUHU216HW,2013-07-09 06:53:00,
2013-07-09 02:54:00,70.9,68.1,30.02,SE,135,1.1,1.1,91,0.00,,,0.00,WUHU216HW,2013-07-09 06:54:00,
2013-07-09 02:55:00,70.9,68.1,30.02,SE,135,1.1,1.1,91,0.00,,,0.00,WUHU216HW,2013-07-09 06:55:00,
2013-07-09 02:58:00,70.9,68.1,30.02,SE,135,0.5,1.1,91,0.00,,,0.00,WUHU216HW,2013-07-09 06:58:00,
2013-07-09 02:59:00,70.9,68.1,30.02,SE,135,0.5,1.1,91,0.00,,,0.00,WUHU216HW,2013-07-09 06:59:00,
2013-07-09 03:01:00,70.9,68.1,30.02,SE,135,0.0,1.1,91,0.00,,,0.00,WUHU216HW,2013-07-09 07:01:00,
2013-07-09 03:04:00,71.1,68.3,30.02,South,180,0.0,1.1,91,0.00,,,0.00,WUHU216HW,2013-07-09 07:04:00,
2013-07-09 03:05:00,71.1,68.3,30.02,South,180,0.0,1.1,91,0.00,,,0.00,WUHU216HW,2013-07-09 07:05:00,
2013-07-09 03:06:00,71.1,68.3,30.02,South,180,0.0,0.7,91,0.00,,,0.00,WUHU216HW,2013-07-09 07:06:00,
2013-07-09 03:09:00,71.1,68.3,30.02,South,180,0.0,0.0,91,0.00,,,0.00,WUHU216HW,2013-07-09 07:09:00,
2013-07-09 03:11:00,71.1,68.3,30.02,South,180,0.0,0.0,91,0.00,,,0.00,WUHU216HW,2013-07-09 07:11:00,
2013-07-09 03:15:00,71.1,68.3,30.02,South,180,0.7,0.7,91,0.00,,,0.00,WUHU216HW,2013-07-09 07:15:00,
2013-07-09 03:16:00,71.3,68.5,30.02,SSE,162,0.5,1.1,91,0.00,,,0.00,WUHU216HW,2013-07-09 07:16:00,
2013-07-09 03:17:00,71.3,68.5,30.02,SSE,159,0.5,1.1,91,0.00,,,0.00,WUHU216HW,2013-07-09 07:17:00,
2013-07-09 03:20:00,71.3,68.5,30.02,SSE,158,0.4,1.1,91,0.00,,,0.00,WUHU216HW,2013-07-09 07:20:00,
2013-07-09 03:22:00,71.3,68.5,30.02,South,180,1.1,1.1,91,0.00,,,0.00,WUHU216HW,2013-07-09 07:22:00,
2013-07-09 03:25:00,71.3,68.5,30.02,South,180,0.4,1.1,91,0.00,,,0.00,WUHU216HW,2013-07-09 07:25:00,
2013-07-09 03:26:00,71.3,68.5,30.02,South,180,0.4,1.1,91,0.00,,,0.00,WUHU216HW,2013-07-09 07:26:00,
2013-07-09 03:28:00,71.3,68.5,30.02,South,180,0.2,1.1,91,0.00,,,0.00,WUHU216HW,2013-07-09 07:28:00,
2013-07-09 03:31:00,71.3,68.5,30.02,SSW,203,0.9,1.3,91,0.00,,,0.00,WUHU216HW,2013-07-09 07:31:00,
2013-07-09 03:32:00,71.3,68.9,30.01,SSW,203,0.9,1.3,92,0.00,,,0.00,WUHU216HW,2013-07-09 07:32:00,
2013-07-09 03:33:00,71.3,68.5,30.02,SSW,203,0.0,1.3,91,0.00,,,0.00,WUHU216HW,2013-07-09 07:33:00,
2013-07-09 03:35:00,71.3,68.5,30.01,SSW,203,0.4,1.3,91,0.00,,,0.00,WUHU216HW,2013-07-09 07:35:00,
2013-07-09 03:36:00,71.3,68.5,30.01,SSE,161,0.6,1.3,91,0.00,,,0.00,WUHU216HW,2013-07-09 07:36:00,
2013-07-09 03:38:00,71.3,68.9,30.01,SSE,158,0.4,1.3,92,0.00,,,0.00,WUHU216HW,2013-07-09 07:38:00,
2013-07-09 03:39:00,71.3,68.9,30.01,SSE,158,0.0,1.3,92,0.00,,,0.00,WUHU216HW,2013-07-09 07:39:00,
2013-07-09 03:41:00,71.3,68.9,30.01,SSE,158,0.0,1.3,92,0.00,,,0.00,WUHU216HW,2013-07-09 07:41:00,
2013-07-09 03:44:00,71.3,68.9,30.01,SSE,158,0.0,0.7,92,0.00,,,0.00,WUHU216HW,2013-07-09 07:44:00,
2013-07-09 03:45:00,71.3,68.9,30.01,SSE,158,0.0,0.7,92,0.00,,,0.00,WUHU216HW,2013-07-09 07:45:00,
2013-07-09 03:47:00,71.3,68.9,30.02,SSW,203,0.4,0.4,92,0.00,,,0.00,WUHU216HW,2013-07-09 07:47:00,
2013-07-09 03:52:00,71.3,68.9,30.01,SSW,203,0.4,0.4,92,0.00,,,0.00,WUHU216HW,2013-07-09 07:52:00,
2013-07-09 03:53:00,71.3,68.9,30.01,SW,225,0.0,0.4,92,0.00,,,0.00,WUHU216HW,2013-07-09 07:53:00,
2013-07-09 03:55:00,71.3,68.9,30.01,SW,225,0.0,0.4,92,0.00,,,0.00,WUHU216HW,2013-07-09 07:55:00,
2013-07-09 03:58:00,71.3,68.9,30.01,SW,225,0.0,0.0,92,0.00,,,0.00,WUHU216HW,2013-07-09 07:58:00,
2013-07-09 03:59:00,71.3,68.9,30.01,SW,225,0.0,0.0,92,0.00,,,0.00,WUHU216HW,2013-07-09 07:59:00,
2013-07-09 04:01:00,71.1,68.7,30.01,SW,225,0.0,0.0,92,0.00,,,0.00,WUHU216HW,2013-07-09 08:01:00,
2013-07-09 04:03:00,70.9,68.5,30.01,SW,225,0.0,0.0,92,0.00,,,0.00,WUHU216HW,2013-07-09 08:03:00,
2013-07-09 04:04:00,70.9,68.5,30.01,SW,225,0.0,0.0,92,0.00,,,0.00,WUHU216HW,2013-07-09 08:04:00,
2013-07-09 04:05:00,70.9,68.5,30.01,SW,225,0.0,0.0,92,0.00,,,0.00,WUHU216HW,2013-07-09 08:05:00,
2013-07-09 04:06:00,70.9,68.5,30.01,SW,225,0.0,0.0,92,0.00,,,0.00,WUHU216HW,2013-07-09 08:06:00,
2013-07-09 04:08:00,70.9,68.5,30.01,West,270,0.0,0.0,92,0.00,,,0.00,WUHU216HW,2013-07-09 08:08:00,
2013-07-09 04:10:00,70.9,68.5,30.01,West,270,0.0,0.0,92,0.00,,,0.00,WUHU216HW,2013-07-09 08:10:00,
2013-07-09 04:12:00,70.9,68.5,30.01,West,270,0.0,0.0,92,0.00,,,0.00,WUHU216HW,2013-07-09 08:12:00,
2013-07-09 04:13:00,70.9,68.5,30.01,West,270,0.0,0.0,92,0.00,,,0.00,WUHU216HW,2013-07-09 08:13:00,
2013-07-09 04:14:00,70.9,68.5,30.01,West,270,0.0,0.0,92,0.00,,,0.00,WUHU216HW,2013-07-09 08:14:00,
2013-07-09 04:16:00,70.9,68.5,30.01,West,270,0.0,0.0,92,0.00,,,0.00,WUHU216HW,2013-07-09 08:16:00,
2013-07-09 04:17:00,70.9,68.5,30.01,West,270,0.0,0.0,92,0.00,,,0.00,WUHU216HW,2013-07-09 08:17:00,
2013-07-09 04:18:00,70.7,68.3,30.01,West,270,0.0,0.0,92,0.00,,,0.00,WUHU216HW,2013-07-09 08:18:00,
2013-07-09 04:19:00,70.7,68.3,30.01,West,270,0.0,0.0,92,0.00,,,0.00,WUHU216HW,2013-07-09 08:19:00,
2013-07-09 04:20:00,70.7,68.3,30.01,West,270,0.0,0.0,92,0.00,,,0.00,WUHU216HW,2013-07-09 08:20:00,
2013-07-09 04:21:00,70.7,68.3,30.01,West,270,0.0,0.0,92,0.00,,,0.00,WUHU216HW,2013-07-09 08:21:00,
2013-07-09 04:22:00,70.7,68.3,30.01,West,270,0.0,0.0,92,0.00,,,0.00,WUHU216HW,2013-07-09 08:22:00,
2013-07-09 04:23:00,70.7,68.3,30.01,West,270,0.0,0.0,92,0.00,,,0.00,WUHU216HW,2013-07-09 08:23:00,
2013-07-09 04:24:00,70.6,68.1,30.01,West,270,0.0,0.0,92,0.00,,,0.00,WUHU216HW,2013-07-09 08:24:00,
2013-07-09 04:26:00,70.6,68.1,30.01,West,270,0.0,0.0,92,0.00,,,0.00,WUHU216HW,2013-07-09 08:26:00,
2013-07-09 04:27:00,70.6,68.1,30.01,West,270,0.0,0.0,92,0.00,,,0.00,WUHU216HW,2013-07-09 08:27:00,
2013-07-09 04:29:00,70.4,68.0,30.01,West,270,0.0,0.0,92,0.00,,,0.00,WUHU216HW,2013-07-09 08:29:00,
2013-07-09 04:30:00,70.4,68.0,30.01,West,270,0.0,0.0,92,0.00,,,0.00,WUHU216HW,2013-07-09 08:30:00,
2013-07-09 04:31:00,70.4,68.0,30.01,West,270,0.0,0.0,92,0.00,,,0.00,WUHU216HW,2013-07-09 08:31:00,
2013-07-09 04:32:00,70.2,67.8,30.02,West,270,0.0,0.0,92,0.00,,,0.00,WUHU216HW,2013-07-09 08:32:00,
2013-07-09 04:34:00,70.4,68.0,30.01,West,270,0.0,0.0,92,0.00,,,0.00,WUHU216HW,2013-07-09 08:34:00,
2013-07-09 04:35:00,70.4,68.0,30.01,West,270,0.0,0.0,92,0.00,,,0.00,WUHU216HW,2013-07-09 08:35:00,
2013-07-09 04:36:00,70.4,68.0,30.01,West,270,0.0,0.0,92,0.00,,,0.00,WUHU216HW,2013-07-09 08:36:00,
2013-07-09 04:37:00,70.4,68.0,30.01,West,270,0.0,0.0,92,0.00,,,0.00,WUHU216HW,2013-07-09 08:37:00,
2013-07-09 04:39:00,70.4,68.0,30.01,West,270,0.0,0.0,92,0.00,,,0.00,WUHU216HW,2013-07-09 08:39:00,
2013-07-09 04:40:00,70.4,68.0,30.01,West,270,0.0,0.0,92,0.00,,,0.00,WUHU216HW,2013-07-09 08:40:00,
2013-07-09 04:41:00,70.4,68.0,30.01,WNW,293,0.0,0.0,92,0.00,,,0.00,WUHU216HW,2013-07-09 08:41:00,
2013-07-09 04:42:00,70.4,68.0,30.01,WNW,293,0.0,0.0,92,0.00,,,0.00,WUHU216HW,2013-07-09 08:42:00,
2013-07-09 04:44:00,70.6,68.1,30.01,WNW,293,0.0,0.0,92,0.00,,,0.00,WUHU216HW,2013-07-09 08:44:00,
2013-07-09 04:45:00,70.6,68.1,30.01,WNW,293,0.0,0.0,92,0.00,,,0.00,WUHU216HW,2013-07-09 08:45:00,
2013-07-09 04:47:00,70.4,68.0,30.01,WNW,293,0.0,0.0,92,0.00,,,0.00,WUHU216HW,2013-07-09 08:47:00,
2013-07-09 04:49:00,70.4,68.0,30.01,WNW,293,0.0,0.0,92,0.00,,,0.00,WUHU216HW,2013-07-09 08:49:00,
2013-07-09 04:51:00,70.2,67.8,30.01,WNW,293,0.0,0.0,92,0.00,,,0.00,WUHU216HW,2013-07-09 08:51:00,
2013-07-09 04:53:00,70.2,67.8,30.01,WNW,293,0.0,0.0,92,0.00,,,0.00,WUHU216HW,2013-07-09 08:53:00,
2013-07-09 04:54:00,70.2,67.8,30.01,WNW,293,0.0,0.0,92,0.00,,,0.00,WUHU216HW,2013-07-09 08:54:00,
2013-07-09 04:57:00,70.2,67.8,30.01,WNW,293,0.0,0.0,92,0.00,,,0.00,WUHU216HW,2013-07-09 08:57:00,
2013-07-09 04:58:00,70.2,67.8,30.01,WNW,293,0.0,0.0,92,0.00,,,0.00,WUHU216HW,2013-07-09 08:58:00,
2013-07-09 04:59:00,70.2,67.8,30.01,WNW,293,0.0,0.0,92,0.00,,,0.00,WUHU216HW,2013-07-09 08:59:00,
2013-07-09 05:00:00,70.0,67.6,30.01,WNW,293,0.0,0.0,92,0.00,,,0.00,WUHU216HW,2013-07-09 09:00:00,
2013-07-09 05:02:00,70.0,67.6,30.01,WNW,293,0.0,0.0,92,0.00,,,0.00,WUHU216HW,2013-07-09 09:02:00,
2013-07-09 05:03:00,70.0,67.6,30.01,WNW,293,0.0,0.0,92,0.00,,,0.00,WUHU216HW,2013-07-09 09:03:00,
2013-07-09 05:04:00,70.0,67.6,30.01,WNW,293,0.0,0.0,92,0.00,,,0.00,WUHU216HW,2013-07-09 09:04:00,
2013-07-09 05:05:00,70.0,67.6,30.01,East,90,0.0,0.0,92,0.00,,,0.00,WUHU216HW,2013-07-09 09:05:00,
2013-07-09 05:08:00,69.8,67.4,30.02,ESE,113,0.7,0.9,92,0.00,,,0.00,WUHU216HW,2013-07-09 09:08:00,
2013-07-09 05:09:00,70.0,67.6,30.02,ESE,113,0.6,0.9,92,0.00,,,0.00,WUHU216HW,2013-07-09 09:09:00,
2013-07-09 05:10:00,70.0,67.6,30.02,South,180,1.1,1.1,92,0.00,,,0.00,WUHU216HW,2013-07-09 09:10:00,
2013-07-09 05:11:00,69.8,67.4,30.02,South,170,0.8,1.1,92,0.00,,,0.00,WUHU216HW,2013-07-09 09:11:00,
2013-07-09 05:14:00,69.8,67.4,30.02,SE,135,0.6,1.1,92,0.00,,,0.00,WUHU216HW,2013-07-09 09:14:00,
2013-07-09 05:15:00,69.8,67.4,30.02,SE,135,0.4,1.1,92,0.00,,,0.00,WUHU216HW,2013-07-09 09:15:00,
2013-07-09 05:16:00,69.8,67.4,30.02,SE,135,0.4,1.1,92,0.00,,,0.00,WUHU216HW,2013-07-09 09:16:00,
2013-07-09 05:17:00,69.8,67.4,30.02,SE,135,0.2,1.1,92,0.00,,,0.00,WUHU216HW,2013-07-09 09:17:00,
2013-07-09 05:20:00,69.8,67.4,30.02,SE,135,0.0,1.1,92,0.00,,,0.00,WUHU216HW,2013-07-09 09:20:00,
2013-07-09 05:22:00,70.0,67.9,30.02,SE,135,0.9,1.1,93,0.00,,,0.00,WUHU216HW,2013-07-09 09:22:00,
2013-07-09 05:23:00,70.0,67.9,30.02,SE,135,0.9,1.1,93,0.00,,,0.00,WUHU216HW,2013-07-09 09:23:00,
2013-07-09 05:25:00,70.0,67.6,30.02,SE,135,1.1,1.1,92,0.00,,,0.00,WUHU216HW,2013-07-09 09:25:00,
2013-07-09 05:27:00,70.0,67.6,30.02,SE,135,1.1,1.3,92,0.00,,,0.00,WUHU216HW,2013-07-09 09:27:00,
2013-07-09 05:28:00,70.0,67.9,30.02,SE,135,0.9,1.3,93,0.00,,,0.00,WUHU216HW,2013-07-09 09:28:00,
2013-07-09 05:30:00,70.0,67.9,30.02,SE,135,1.1,1.3,93,0.00,,,0.00,WUHU216HW,2013-07-09 09:30:00,
2013-07-09 05:31:00,70.2,68.0,30.02,SE,135,1.3,1.3,93,0.00,,,0.00,WUHU216HW,2013-07-09 09:31:00,
2013-07-09 05:33:00,70.2,68.0,30.02,SE,140,0.6,1.3,93,0.00,,,0.00,WUHU216HW,2013-07-09 09:33:00,
2013-07-09 05:34:00,70.2,68.0,30.02,SE,141,0.5,1.3,93,0.00,,,0.00,WUHU216HW,2013-07-09 09:34:00,
2013-07-09 05:35:00,70.2,68.0,30.02,ESE,113,1.1,1.3,93,0.00,,,0.00,WUHU216HW,2013-07-09 09:35:00,
2013-07-09 05:37:00,70.4,68.2,30.02,ESE,107,1.0,1.3,93,0.00,,,0.00,WUHU216HW,2013-07-09 09:37:00,
2013-07-09 05:38:00,70.6,68.4,30.02,East,90,0.4,1.3,93,0.00,,,0.00,WUHU216HW,2013-07-09 09:38:00,
2013-07-09 05:39:00,70.6,68.4,30.02,East,90,0.3,1.3,93,0.00,,,0.00,WUHU216HW,2013-07-09 09:39:00,
2013-07-09 05:40:00,70.6,68.4,30.02,East,90,0.2,1.3,93,0.00,,,0.00,WUHU216HW,2013-07-09 09:40:00,
2013-07-09 05:43:00,70.6,68.4,30.02,East,90,0.0,1.3,93,0.00,,,0.00,WUHU216HW,2013-07-09 09:43:00,
2013-07-09 05:44:00,70.6,68.4,30.02,East,90,0.0,1.3,93,0.00,,,0.00,WUHU216HW,2013-07-09 09:44:00,
2013-07-09 05:45:00,70.6,68.4,30.02,East,90,0.0,1.3,93,0.00,,,0.00,WUHU216HW,2013-07-09 09:45:00,
2013-07-09 05:46:00,70.6,68.4,30.02,East,90,0.0,1.3,93,0.00,,,0.00,WUHU216HW,2013-07-09 09:46:00,
2013-07-09 05:50:00,70.4,68.2,30.02,East,90,0.0,0.0,93,0.00,,,0.00,WUHU216HW,2013-07-09 09:50:00,
2013-07-09 05:51:00,70.2,68.0,30.02,East,90,0.0,0.0,93,0.00,,,0.00,WUHU216HW,2013-07-09 09:51:00,
2013-07-09 05:52:00,70.2,68.0,30.02,East,90,0.0,0.0,93,0.00,,,0.00,WUHU216HW,2013-07-09 09:52:00,
2013-07-09 05:56:00,70.2,68.0,30.02,East,90,0.0,0.0,93,0.00,,,0.00,WUHU216HW,2013-07-09 09:56:00,
2013-07-09 05:57:00,70.2,68.0,30.02,East,90,0.0,0.0,93,0.00,,,0.00,WUHU216HW,2013-07-09 09:57:00,
2013-07-09 05:58:00,70.2,68.0,30.02,East,90,0.0,0.0,93,0.00,,,0.00,WUHU216HW,2013-07-09 09:58:00,
2013-07-09 06:03:00,70.0,67.9,30.03,ESE,113,0.4,0.9,93,0.00,,,0.00,WUHU216HW,2013-07-09 10:03:00,
2013-07-09 06:04:00,70.0,67.9,30.03,ESE,113,0.4,0.9,93,0.00,,,0.00,WUHU216HW,2013-07-09 10:04:00,
2013-07-09 06:05:00,70.0,67.9,30.03,ESE,113,0.4,0.9,93,0.00,,,0.00,WUHU216HW,2013-07-09 10:05:00,
2013-07-09 06:08:00,70.2,68.0,30.03,ESE,113,0.0,0.9,93,0.00,,,0.00,WUHU216HW,2013-07-09 10:08:00,
2013-07-09 06:09:00,70.2,68.0,30.03,ESE,113,0.0,0.9,93,0.00,,,0.00,WUHU216HW,2013-07-09 10:09:00,
2013-07-09 06:10:00,70.2,68.0,30.03,ESE,113,0.0,0.9,93,0.00,,,0.00,WUHU216HW,2013-07-09 10:10:00,
2013-07-09 06:14:00,70.2,68.0,30.03,ESE,113,0.0,0.0,93,0.00,,,0.00,WUHU216HW,2013-07-09 10:14:00,
2013-07-09 06:15:00,70.2,68.0,30.03,ESE,113,0.0,0.0,93,0.00,,,0.00,WUHU216HW,2013-07-09 10:15:00,
2013-07-09 06:16:00,70.2,68.0,30.03,ESE,113,0.0,0.0,93,0.00,,,0.00,WUHU216HW,2013-07-09 10:16:00,
2013-07-09 06:19:00,70.2,68.0,30.03,ESE,113,0.0,0.0,93,0.00,,,0.00,WUHU216HW,2013-07-09 10:19:00,
2013-07-09 06:20:00,70.2,68.0,30.03,ESE,113,0.0,0.0,93,0.00,,,0.00,WUHU216HW,2013-07-09 10:20:00,
2013-07-09 06:21:00,70.2,68.0,30.03,ESE,113,0.0,0.0,93,0.00,,,0.00,WUHU216HW,2013-07-09 10:21:00,
2013-07-09 06:22:00,70.2,68.0,30.02,ESE,113,0.0,0.0,93,0.00,,,0.00,WUHU216HW,2013-07-09 10:22:00,
2013-07-09 06:24:00,70.2,68.0,30.03,WSW,248,0.0,0.0,93,0.00,,,0.00,WUHU216HW,2013-07-09 10:24:00,
2013-07-09 06:26:00,70.2,68.0,30.02,WSW,248,1.0,1.1,93,0.00,,,0.00,WUHU216HW,2013-07-09 10:26:00,
2013-07-09 06:27:00,70.2,68.0,30.02,WSW,248,1.1,1.3,93,0.00,,,0.00,WUHU216HW,2013-07-09 10:27:00,
2013-07-09 06:28:00,70.2,68.0,30.02,WSW,248,1.0,1.3,93,0.00,,,0.00,WUHU216HW,2013-07-09 10:28:00,
2013-07-09 06:30:00,70.2,68.0,30.02,WSW,248,0.4,1.3,93,0.00,,,0.00,WUHU216HW,2013-07-09 10:30:00,
2013-07-09 06:31:00,70.2,68.0,30.02,WSW,248,0.3,1.3,93,0.00,,,0.00,WUHU216HW,2013-07-09 10:31:00,
2013-07-09 06:32:00,70.2,68.0,30.02,WSW,248,0.3,1.3,93,0.00,,,0.00,WUHU216HW,2013-07-09 10:32:00,
2013-07-09 06:33:00,70.2,68.0,30.02,WSW,248,0.0,1.3,93,0.00,,,0.00,WUHU216HW,2013-07-09 10:33:00,
2013-07-09 06:34:00,70.2,68.0,30.02,SSW,203,0.0,1.3,93,0.00,,,0.00,WUHU216HW,2013-07-09 10:34:00,
2013-07-09 06:36:00,70.2,68.0,30.02,SE,135,0.0,1.3,93,0.00,,,0.00,WUHU216HW,2013-07-09 10:36:00,
2013-07-09 06:37:00,70.2,68.0,30.02,SE,135,0.0,1.1,93,0.00,,,0.00,WUHU216HW,2013-07-09 10:37:00,
2013-07-09 06:38:00,70.2,68.0,30.02,SE,135,0.0,1.1,93,0.00,,,0.00,WUHU216HW,2013-07-09 10:38:00,
2013-07-09 06:39:00,70.2,68.0,30.02,SE,135,0.0,0.4,93,0.00,,,0.00,WUHU216HW,2013-07-09 10:39:00,
2013-07-09 06:41:00,70.2,68.0,30.02,SE,135,0.0,0.0,93,0.00,,,0.00,WUHU216HW,2013-07-09 10:41:00,
2013-07-09 06:42:00,70.4,68.2,30.02,SE,135,0.0,0.0,93,0.00,,,0.00,WUHU216HW,2013-07-09 10:42:00,
2013-07-09 06:43:00,70.4,68.2,30.02,SE,135,0.0,0.0,93,0.00,,,0.00,WUHU216HW,2013-07-09 10:43:00,
2013-07-09 06:44:00,70.4,68.2,30.02,SE,135,0.0,0.0,93,0.00,,,0.00,WUHU216HW,2013-07-09 10:44:00,
2013-07-09 06:47:00,70.4,68.2,30.02,SE,135,0.0,0.0,93,0.00,,,0.00,WUHU216HW,2013-07-09 10:47:00,
2013-07-09 06:48:00,70.4,68.2,30.02,SSE,158,0.0,0.0,93,0.00,,,0.00,WUHU216HW,2013-07-09 10:48:00,
2013-07-09 06:50:00,70.4,68.2,30.02,South,180,0.0,0.0,93,0.00,,,0.00,WUHU216HW,2013-07-09 10:50:00,
2013-07-09 06:53:00,70.4,68.2,30.02,South,180,0.0,0.0,93,0.00,,,0.00,WUHU216HW,2013-07-09 10:53:00,
2013-07-09 06:55:00,70.6,68.4,30.02,South,180,0.0,0.0,93,0.00,,,0.00,WUHU216HW,2013-07-09 10:55:00,
2013-07-09 06:58:00,70.6,68.4,30.02,South,180,0.0,0.0,93,0.00,,,0.00,WUHU216HW,2013-07-09 10:58:00,
2013-07-09 06:59:00,70.6,68.4,30.02,South,180,0.0,0.0,93,0.00,,,0.00,WUHU216HW,2013-07-09 10:59:00,
2013-07-09 07:01:00,70.9,68.8,30.02,South,180,0.0,0.0,93,0.00,,,0.00,WUHU216HW,2013-07-09 11:01:00,
2013-07-09 07:03:00,70.9,68.8,30.02,South,180,0.0,0.0,93,0.00,,,0.00,WUHU216HW,2013-07-09 11:03:00,
2013-07-09 07:04:00,70.9,68.8,30.02,South,180,0.0,0.0,93,0.00,,,0.00,WUHU216HW,2013-07-09 11:04:00,
2013-07-09 07:06:00,70.9,68.8,30.02,South,180,0.0,0.0,93,0.00,,,0.00,WUHU216HW,2013-07-09 11:06:00,
2013-07-09 07:09:00,70.9,68.8,30.02,South,180,0.0,0.0,93,0.00,,,0.00,WUHU216HW,2013-07-09 11:09:00,
2013-07-09 07:10:00,70.9,68.8,30.02,South,180,0.0,0.0,93,0.00,,,0.00,WUHU216HW,2013-07-09 11:10:00,
2013-07-09 07:12:00,70.9,68.8,30.02,South,180,0.0,0.0,93,0.00,,,0.00,WUHU216HW,2013-07-09 11:12:00,
2013-07-09 07:15:00,71.1,68.9,30.02,SE,135,1.1,1.1,93,0.00,,,0.00,WUHU216HW,2013-07-09 11:15:00,
2013-07-09 07:17:00,71.3,69.1,30.02,SE,126,1.0,1.3,93,0.00,,,0.00,WUHU216HW,2013-07-09 11:17:00,
2013-07-09 07:20:00,71.3,69.1,30.02,ESE,113,0.6,1.3,93,0.00,,,0.00,WUHU216HW,2013-07-09 11:20:00,
2013-07-09 07:21:00,71.5,69.3,30.02,ESE,113,0.3,1.3,93,0.00,,,0.00,WUHU216HW,2013-07-09 11:21:00,
2013-07-09 07:23:00,71.5,69.3,30.02,ESE,113,0.0,1.3,93,0.00,,,0.00,WUHU216HW,2013-07-09 11:23:00,
2013-07-09 07:25:00,71.6,69.5,30.02,ESE,113,0.0,1.3,93,0.00,,,0.00,WUHU216HW,2013-07-09 11:25:00,
2013-07-09 07:26:00,71.8,69.7,30.02,ESE,113,0.0,0.9,93,0.00,,,0.00,WUHU216HW,2013-07-09 11:26:00,
2013-07-09 07:27:00,71.8,69.7,30.02,ESE,113,0.0,0.9,93,0.00,,,0.00,WUHU216HW,2013-07-09 11:27:00,
2013-07-09 07:28:00,72.0,69.8,30.02,ESE,113,0.0,0.9,93,0.00,,,0.00,WUHU216HW,2013-07-09 11:28:00,
2013-07-09 07:29:00,72.0,69.8,30.02,ESE,113,0.2,0.4,93,0.00,,,0.00,WUHU216HW,2013-07-09 11:29:00,
2013-07-09 07:31:00,72.2,70.0,30.02,ESE,113,0.2,0.2,93,0.00,,,0.00,WUHU216HW,2013-07-09 11:31:00,
2013-07-09 07:32:00,72.2,70.0,30.02,ESE,113,0.7,0.7,93,0.00,,,0.00,WUHU216HW,2013-07-09 11:32:00,
2013-07-09 07:35:00,72.4,70.2,30.03,ESE,113,0.9,1.3,93,0.00,,,0.00,WUHU216HW,2013-07-09 11:35:00,
2013-07-09 07:36:00,72.4,70.2,30.03,ESE,113,1.1,1.3,93,0.00,,,0.00,WUHU216HW,2013-07-09 11:36:00,
2013-07-09 07:37:00,72.5,70.4,30.03,ESE,113,2.0,2.0,93,0.00,,,0.00,WUHU216HW,2013-07-09 11:37:00,
2013-07-09 07:38:00,72.5,70.4,30.03,SE,135,1.6,2.0,93,0.00,,,0.00,WUHU216HW,2013-07-09 11:38:00,
2013-07-09 07:42:00,72.7,70.6,30.03,SE,143,1.2,2.2,93,0.00,,,0.00,WUHU216HW,2013-07-09 11:42:00,
2013-07-09 07:43:00,72.7,70.6,30.03,ESE,113,1.8,2.2,93,0.00,,,0.00,WUHU216HW,2013-07-09 11:43:00,
2013-07-09 07:44:00,72.9,70.7,30.03,SE,127,1.0,2.2,93,0.00,,,0.00,WUHU216HW,2013-07-09 11:44:00,
2013-07-09 07:47:00,73.1,70.9,30.03,SE,139,1.0,2.2,93,0.00,,,0.00,WUHU216HW,2013-07-09 11:47:00,
2013-07-09 07:48:00,73.1,70.9,30.03,SE,141,0.7,2.2,93,0.00,,,0.00,WUHU216HW,2013-07-09 11:48:00,
2013-07-09 07:50:00,73.4,71.7,30.03,SE,146,0.6,2.2,94,0.00,,,0.00,WUHU216HW,2013-07-09 11:50:00,
2013-07-09 07:51:00,73.6,71.5,30.03,SSE,158,0.4,2.2,93,0.00,,,0.00,WUHU216HW,2013-07-09 11:51:00,
2013-07-09 07:52:00,73.8,71.6,30.03,SE,135,0.9,2.0,93,0.00,,,0.00,WUHU216HW,2013-07-09 11:52:00,
2013-07-09 07:53:00,73.8,71.6,30.03,SE,135,1.1,1.8,93,0.00,,,0.00,WUHU216HW,2013-07-09 11:53:00,
2013-07-09 07:54:00,73.8,71.6,30.03,SE,135,1.0,1.8,93,0.00,,,0.00,WUHU216HW,2013-07-09 11:54:00,
2013-07-09 07:55:00,74.0,71.8,30.03,SE,135,0.7,1.6,93,0.00,,,0.00,WUHU216HW,2013-07-09 11:55:00,
2013-07-09 07:57:00,74.2,72.0,30.03,SE,146,0.7,1.6,93,0.00,,,0.00,WUHU216HW,2013-07-09 11:57:00,
2013-07-09 07:59:00,74.3,72.2,30.03,SSE,158,0.2,1.6,93,0.00,,,0.00,WUHU216HW,2013-07-09 11:59:00,
2013-07-09 08:01:00,74.5,72.4,30.04,SE,135,0.9,1.6,93,0.00,,,0.00,WUHU216HW,2013-07-09 12:01:00,
2013-07-09 08:03:00,74.7,72.3,30.04,SE,135,0.2,1.6,92,0.00,,,0.00,WUHU216HW,2013-07-09 12:03:00,
2013-07-09 08:05:00,74.9,72.5,30.04,ESE,113,1.1,1.1,92,0.00,,,0.00,WUHU216HW,2013-07-09 12:05:00,
2013-07-09 08:06:00,75.1,72.6,30.04,ESE,113,1.3,1.3,92,0.00,,,0.00,WUHU216HW,2013-07-09 12:06:00,
2013-07-09 08:09:00,75.1,72.6,30.04,ESE,116,0.7,1.6,92,0.00,,,0.00,WUHU216HW,2013-07-09 12:09:00,
2013-07-09 08:11:00,75.2,72.8,30.04,SSE,153,0.7,1.6,92,0.00,,,0.00,WUHU216HW,2013-07-09 12:11:00,
2013-07-09 08:12:00,75.4,73.0,30.04,SE,135,0.3,1.6,92,0.00,,,0.00,WUHU216HW,2013-07-09 12:12:00,
2013-07-09 08:14:00,75.6,73.2,30.04,SE,135,0.0,1.6,92,0.00,,,0.00,WUHU216HW,2013-07-09 12:14:00,
2013-07-09 08:16:00,75.8,73.4,30.05,SE,135,0.0,1.6,92,0.00,,,0.00,WUHU216HW,2013-07-09 12:16:00,
2013-07-09 08:17:00,75.8,73.4,30.05,SE,135,0.0,1.6,92,0.00,,,0.00,WUHU216HW,2013-07-09 12:17:00,
2013-07-09 08:18:00,75.8,73.4,30.05,SSE,158,0.0,1.1,92,0.00,,,0.00,WUHU216HW,2013-07-09 12:18:00,
2013-07-09 08:19:00,75.8,73.4,30.05,SSE,158,0.0,1.1,92,0.00,,,0.00,WUHU216HW,2013-07-09 12:19:00,
2013-07-09 08:20:00,76.0,73.5,30.05,SSE,158,0.0,0.7,92,0.00,,,0.00,WUHU216HW,2013-07-09 12:20:00,
2013-07-09 08:21:00,76.0,73.2,30.05,SSE,158,0.2,0.2,91,0.00,,,0.00,WUHU216HW,2013-07-09 12:21:00,
2013-07-09 08:22:00,76.0,73.2,30.05,SSE,158,0.7,0.7,91,0.00,,,0.00,WUHU216HW,2013-07-09 12:22:00,
2013-07-09 08:24:00,76.0,73.2,30.05,SSE,158,1.1,1.1,91,0.00,,,0.00,WUHU216HW,2013-07-09 12:24:00,
2013-07-09 08:25:00,76.0,73.2,30.05,SSE,158,1.0,1.1,91,0.00,,,0.00,WUHU216HW,2013-07-09 12:25:00,
2013-07-09 08:27:00,76.0,73.2,30.05,SSE,158,0.6,1.1,91,0.00,,,0.00,WUHU216HW,2013-07-09 12:27:00,
2013-07-09 08:29:00,76.0,73.2,30.05,SSE,158,0.3,1.1,91,0.00,,,0.00,WUHU216HW,2013-07-09 12:29:00,
2013-07-09 08:31:00,76.0,73.2,30.05,SE,135,0.4,1.1,91,0.00,,,0.00,WUHU216HW,2013-07-09 12:31:00,
2013-07-09 08:33:00,76.0,73.2,30.05,SE,134,1.1,1.6,91,0.00,,,0.00,WUHU216HW,2013-07-09 12:33:00,
2013-07-09 08:35:00,76.1,73.4,30.05,ESE,113,1.1,1.6,91,0.00,,,0.00,WUHU216HW,2013-07-09 12:35:00,
2013-07-09 08:36:00,76.1,73.4,30.05,ESE,114,0.6,1.6,91,0.00,,,0.00,WUHU216HW,2013-07-09 12:36:00,
2013-07-09 08:37:00,76.1,73.4,30.05,ESE,113,0.6,1.6,91,0.00,,,0.00,WUHU216HW,2013-07-09 12:37:00,
2013-07-09 08:40:00,76.1,73.1,30.05,ESE,113,0.9,1.6,90,0.00,,,0.00,WUHU216HW,2013-07-09 12:40:00,
2013-07-09 08:41:00,76.1,73.1,30.05,ESE,113,0.6,1.6,90,0.00,,,0.00,WUHU216HW,2013-07-09 12:41:00,
2013-07-09 08:43:00,76.1,73.1,30.05,ESE,113,0.4,1.1,90,0.00,,,0.00,WUHU216HW,2013-07-09 12:43:00,
2013-07-09 08:46:00,76.3,73.3,30.05,ESE,113,0.0,1.1,90,0.00,,,0.00,WUHU216HW,2013-07-09 12:46:00,
2013-07-09 08:47:00,76.3,73.3,30.05,ESE,113,0.0,1.1,90,0.00,,,0.00,WUHU216HW,2013-07-09 12:47:00,
2013-07-09 08:50:00,76.3,73.3,30.04,SE,135,0.0,0.9,90,0.00,,,0.00,WUHU216HW,2013-07-09 12:50:00,
2013-07-09 08:51:00,76.3,73.3,30.05,SE,135,0.9,0.9,90,0.00,,,0.00,WUHU216HW,2013-07-09 12:51:00,
2013-07-09 08:52:00,76.5,73.4,30.05,SE,133,0.8,0.9,90,0.00,,,0.00,WUHU216HW,2013-07-09 12:52:00,
2013-07-09 08:55:00,76.7,73.6,30.05,SE,135,2.0,2.0,90,0.00,,,0.00,WUHU216HW,2013-07-09 12:55:00,
2013-07-09 08:56:00,76.7,73.6,30.05,SE,126,1.6,2.0,90,0.00,,,0.00,WUHU216HW,2013-07-09 12:56:00,
2013-07-09 08:58:00,76.7,73.3,30.05,SE,135,1.5,2.0,89,0.00,,,0.00,WUHU216HW,2013-07-09 12:58:00,
2013-07-09 09:00:00,76.9,73.4,30.05,SE,135,1.1,2.0,89,0.00,,,0.00,WUHU216HW,2013-07-09 13:00:00,
2013-07-09 09:02:00,77.0,73.6,30.05,SE,135,1.1,2.0,89,0.00,,,0.00,WUHU216HW,2013-07-09 13:02:00,
2013-07-09 09:03:00,77.0,73.6,30.05,SE,135,0.0,2.0,89,0.00,,,0.00,WUHU216HW,2013-07-09 13:03:00,
2013-07-09 09:05:00,77.2,73.8,30.05,SE,135,0.0,1.8,89,0.00,,,0.00,WUHU216HW,2013-07-09 13:05:00,
2013-07-09 09:07:00,77.4,74.0,30.05,SSE,158,1.3,1.3,89,0.00,,,0.00,WUHU216HW,2013-07-09 13:07:00,
2013-07-09 09:08:00,77.6,74.2,30.05,South,180,1.8,1.8,89,0.00,,,0.00,WUHU216HW,2013-07-09 13:08:00,
2013-07-09 09:09:00,77.6,74.2,30.05,South,188,1.1,1.8,89,0.00,,,0.00,WUHU216HW,2013-07-09 13:09:00,
2013-07-09 09:12:00,77.8,74.3,30.05,ESE,113,0.4,1.8,89,0.00,,,0.00,WUHU216HW,2013-07-09 13:12:00,
2013-07-09 09:13:00,77.9,74.2,30.05,South,180,2.7,2.7,88,0.00,,,0.00,WUHU216HW,2013-07-09 13:13:00,
2013-07-09 09:16:00,77.9,74.2,30.05,SE,135,0.7,2.7,88,0.00,,,0.00,WUHU216HW,2013-07-09 13:16:00,
2013-07-09 09:17:00,78.1,74.3,30.05,SE,135,0.6,2.7,88,0.00,,,0.00,WUHU216HW,2013-07-09 13:17:00,
2013-07-09 09:18:00,78.1,74.3,30.05,SE,135,0.4,2.7,88,0.00,,,0.00,WUHU216HW,2013-07-09 13:18:00,
2013-07-09 09:21:00,78.3,74.2,30.05,SW,225,1.6,2.7,87,0.00,,,0.00,WUHU216HW,2013-07-09 13:21:00,
2013-07-09 09:23:00,78.3,74.2,30.05,West,264,0.7,2.7,87,0.00,,,0.00,WUHU216HW,2013-07-09 13:23:00,
2013-07-09 09:24:00,78.3,74.2,30.05,WSW,248,0.9,2.7,87,0.00,,,0.00,WUHU216HW,2013-07-09 13:24:00,
2013-07-09 09:25:00,78.3,74.2,30.05,WSW,248,0.9,2.7,87,0.00,,,0.00,WUHU216HW,2013-07-09 13:25:00,
2013-07-09 09:27:00,78.5,74.3,30.05,South,180,0.9,2.7,87,0.00,,,0.00,WUHU216HW,2013-07-09 13:27:00,
2013-07-09 09:28:00,78.5,74.3,30.05,SW,225,0.9,2.7,87,0.00,,,0.00,WUHU216HW,2013-07-09 13:28:00,
2013-07-09 09:29:00,78.7,74.5,30.05,SSW,203,1.6,2.7,87,0.00,,,0.00,WUHU216HW,2013-07-09 13:29:00,
2013-07-09 09:30:00,78.8,74.7,30.05,SSE,158,2.2,2.2,87,0.00,,,0.00,WUHU216HW,2013-07-09 13:30:00,
2013-07-09 09:31:00,78.8,74.7,30.05,SSE,168,2.0,2.2,87,0.00,,,0.00,WUHU216HW,2013-07-09 13:31:00,
2013-07-09 09:32:00,78.8,74.7,30.05,SE,135,2.2,2.2,87,0.00,,,0.00,WUHU216HW,2013-07-09 13:32:00,
2013-07-09 09:34:00,79.2,74.7,30.05,SE,145,1.5,2.2,86,0.00,,,0.00,WUHU216HW,2013-07-09 13:34:00,
2013-07-09 09:36:00,79.4,74.9,30.05,SE,135,1.6,2.5,86,0.00,,,0.00,WUHU216HW,2013-07-09 13:36:00,
2013-07-09 09:37:00,79.4,74.9,30.05,SSE,158,2.2,2.5,86,0.00,,,0.00,WUHU216HW,2013-07-09 13:37:00,
2013-07-09 09:39:00,79.6,74.7,30.05,SE,135,1.8,2.5,85,0.00,,,0.00,WUHU216HW,2013-07-09 13:39:00,
2013-07-09 09:40:00,79.6,74.7,30.05,SE,135,3.4,3.4,85,0.00,,,0.00,WUHU216HW,2013-07-09 13:40:00,
2013-07-09 09:42:00,79.6,74.7,30.05,SE,143,1.5,3.4,85,0.00,,,0.00,WUHU216HW,2013-07-09 13:42:00,
2013-07-09 09:44:00,79.6,74.7,30.05,SE,144,2.0,3.4,85,0.00,,,0.00,WUHU216HW,2013-07-09 13:44:00,
2013-07-09 09:45:00,79.6,74.7,30.05,SSE,149,1.0,3.4,85,0.00,,,0.00,WUHU216HW,2013-07-09 13:45:00,
2013-07-09 09:47:00,79.9,75.0,30.05,South,180,2.2,3.4,85,0.00,,,0.00,WUHU216HW,2013-07-09 13:47:00,
2013-07-09 09:48:00,80.1,75.2,30.05,SSW,203,2.5,3.4,85,0.00,,,0.00,WUHU216HW,2013-07-09 13:48:00,
2013-07-09 09:49:00,80.3,75.3,30.05,SSW,203,2.7,3.4,85,0.00,,,0.00,WUHU216HW,2013-07-09 13:49:00,
2013-07-09 09:50:00,80.6,75.7,30.05,SW,218,1.8,2.7,85,0.00,,,0.00,WUHU216HW,2013-07-09 13:50:00,
2013-07-09 09:52:00,81.2,76.2,30.05,South,172,1.5,2.7,85,0.00,,,0.00,WUHU216HW,2013-07-09 13:52:00,
2013-07-09 09:53:00,81.4,76.4,30.05,South,180,2.5,2.7,85,0.00,,,0.00,WUHU216HW,2013-07-09 13:53:00,
2013-07-09 09:54:00,81.4,76.1,30.05,SSE,167,1.8,2.7,84,0.00,,,0.00,WUHU216HW,2013-07-09 13:54:00,
2013-07-09 09:55:00,81.5,76.2,30.05,ESE,113,2.9,2.9,84,0.00,,,0.00,WUHU216HW,2013-07-09 13:55:00,
2013-07-09 09:56:00,81.4,75.7,30.05,ESE,123,2.7,2.9,83,0.00,,,0.00,WUHU216HW,2013-07-09 13:56:00,
2013-07-09 09:57:00,81.4,75.7,30.05,SE,135,3.4,3.4,83,0.00,,,0.00,WUHU216HW,2013-07-09 13:57:00,
2013-07-09 10:00:00,81.2,75.5,30.05,ESE,113,1.8,3.4,83,0.00,,,0.00,WUHU216HW,2013-07-09 14:00:00,
2013-07-09 10:01:00,81.4,76.1,30.05,West,270,2.0,3.4,84,0.00,,,0.00,WUHU216HW,2013-07-09 14:01:00,
2013-07-09 10:02:00,81.4,76.1,30.05,West,270,2.0,3.4,84,0.00,,,0.00,WUHU216HW,2013-07-09 14:02:00,
2013-07-09 10:03:00,81.5,76.2,30.05,West,260,1.2,3.4,84,0.00,,,0.00,WUHU216HW,2013-07-09 14:03:00,
2013-07-09 10:05:00,81.9,76.2,30.05,SW,225,0.9,3.4,83,0.00,,,0.00,WUHU216HW,2013-07-09 14:05:00,
2013-07-09 10:07:00,81.9,76.2,30.05,West,276,1.3,2.0,83,0.00,,,0.00,WUHU216HW,2013-07-09 14:07:00,
2013-07-09 10:08:00,82.1,76.2,30.05,WNW,293,0.7,2.0,82,0.00,,,0.00,WUHU216HW,2013-07-09 14:08:00,
2013-07-09 10:10:00,82.1,76.2,30.05,SSE,158,2.5,2.5,82,0.00,,,0.00,WUHU216HW,2013-07-09 14:10:00,
2013-07-09 10:12:00,82.1,76.2,30.05,SSE,158,1.8,2.5,82,0.00,,,0.00,WUHU216HW,2013-07-09 14:12:00,
2013-07-09 10:13:00,82.1,76.2,30.04,SSE,163,1.0,2.5,82,0.00,,,0.00,WUHU216HW,2013-07-09 14:13:00,
2013-07-09 10:14:00,82.3,76.3,30.04,SW,225,0.7,2.5,82,0.00,,,0.00,WUHU216HW,2013-07-09 14:14:00,
2013-07-09 10:16:00,82.4,76.5,30.05,West,259,0.6,2.5,82,0.00,,,0.00,WUHU216HW,2013-07-09 14:16:00,
2013-07-09 10:17:00,82.6,76.6,30.05,NW,312,0.8,2.5,82,0.00,,,0.00,WUHU216HW,2013-07-09 14:17:00,
2013-07-09 10:18:00,82.8,76.8,30.04,WSW,248,1.1,2.5,82,0.00,,,0.00,WUHU216HW,2013-07-09 14:18:00,
2013-07-09 10:19:00,82.8,76.8,30.04,SW,225,1.1,2.5,82,0.00,,,0.00,WUHU216HW,2013-07-09 14:19:00,
2013-07-09 10:22:00,83.5,77.1,30.04,SSE,158,1.8,1.8,81,0.00,,,0.00,WUHU216HW,2013-07-09 14:22:00,
2013-07-09 10:23:00,83.9,77.8,30.04,WSW,248,1.8,1.8,82,0.00,,,0.00,WUHU216HW,2013-07-09 14:23:00,
2013-07-09 10:24:00,83.9,77.8,30.04,WSW,248,1.8,1.8,82,0.00,,,0.00,WUHU216HW,2013-07-09 14:24:00,
2013-07-09 10:25:00,84.6,78.1,30.04,SW,223,1.4,2.5,81,0.00,,,0.00,WUHU216HW,2013-07-09 14:25:00,
2013-07-09 10:26:00,84.8,77.9,30.04,North,0,0.4,2.5,80,0.00,,,0.00,WUHU216HW,2013-07-09 14:26:00,
2013-07-09 10:28:00,85.0,77.8,30.04,SSE,158,1.3,2.5,79,0.00,,,0.00,WUHU216HW,2013-07-09 14:28:00,
2013-07-09 10:29:00,85.0,77.8,30.04,SE,135,1.0,2.5,79,0.00,,,0.00,WUHU216HW,2013-07-09 14:29:00,
2013-07-09 10:31:00,85.1,77.5,30.04,North,0,1.1,2.5,78,0.00,,,0.00,WUHU216HW,2013-07-09 14:31:00,
2013-07-09 10:33:00,85.3,77.7,30.04,SW,225,1.6,2.5,78,0.00,,,0.00,WUHU216HW,2013-07-09 14:33:00,
2013-07-09 10:34:00,85.3,77.7,30.04,SW,225,1.6,1.6,78,0.00,,,0.00,WUHU216HW,2013-07-09 14:34:00,
2013-07-09 10:36:00,85.3,77.3,30.04,SE,135,1.1,2.0,77,0.00,,,0.00,WUHU216HW,2013-07-09 14:36:00,
2013-07-09 10:37:00,85.3,77.3,30.04,SE,135,1.1,2.0,77,0.00,,,0.00,WUHU216HW,2013-07-09 14:37:00,
2013-07-09 10:39:00,85.5,77.5,30.04,SE,135,1.1,2.0,77,0.00,,,0.00,WUHU216HW,2013-07-09 14:39:00,
2013-07-09 10:40:00,85.5,77.0,30.04,SE,135,0.4,2.0,76,0.00,,,0.00,WUHU216HW,2013-07-09 14:40:00,
2013-07-09 10:41:00,85.3,76.9,30.04,NW,315,0.9,2.0,76,0.00,,,0.00,WUHU216HW,2013-07-09 14:41:00,
2013-07-09 10:42:00,85.3,76.9,30.04,North,0,1.1,2.0,76,0.00,,,0.00,WUHU216HW,2013-07-09 14:42:00,
2013-07-09 10:44:00,85.5,77.0,30.04,NNW,338,0.4,1.1,76,0.00,,,0.00,WUHU216HW,2013-07-09 14:44:00,
2013-07-09 10:45:00,85.5,77.0,30.04,East,90,0.2,1.1,76,0.00,,,0.00,WUHU216HW,2013-07-09 14:45:00,
2013-07-09 10:46:00,85.5,77.0,30.04,SW,225,1.1,1.1,76,0.00,,,0.00,WUHU216HW,2013-07-09 14:46:00,
2013-07-09 10:48:00,85.7,77.2,30.04,West,279,1.0,1.1,76,0.00,,,0.00,WUHU216HW,2013-07-09 14:48:00,
2013-07-09 10:50:00,85.5,77.0,30.04,NNW,338,0.9,1.1,76,0.00,,,0.00,WUHU216HW,2013-07-09 14:50:00,
2013-07-09 10:51:00,85.5,77.0,30.04,NNW,338,0.9,1.1,76,0.00,,,0.00,WUHU216HW,2013-07-09 14:51:00,
2013-07-09 10:52:00,85.3,76.5,30.04,NNW,331,0.6,1.1,75,0.00,,,0.00,WUHU216HW,2013-07-09 14:52:00,
2013-07-09 10:54:00,85.1,76.7,30.04,WNW,293,0.4,1.1,76,0.00,,,0.00,WUHU216HW,2013-07-09 14:54:00,
2013-07-09 10:55:00,85.0,76.5,30.04,NW,315,0.0,1.1,76,0.00,,,0.00,WUHU216HW,2013-07-09 14:55:00,
2013-07-09 10:56:00,85.0,76.5,30.04,North,0,0.4,1.1,76,0.00,,,0.00,WUHU216HW,2013-07-09 14:56:00,
2013-07-09 10:57:00,84.8,76.3,30.04,West,270,0.4,0.9,76,0.00,,,0.00,WUHU216HW,2013-07-09 14:57:00,
2013-07-09 11:00:00,84.6,76.1,30.04,SSW,208,1.0,2.2,76,0.00,,,0.00,WUHU216HW,2013-07-09 15:00:00,
2013-07-09 11:01:00,84.6,76.1,30.04,SSE,158,1.3,2.2,76,0.00,,,0.00,WUHU216HW,2013-07-09 15:01:00,
2013-07-09 11:02:00,84.8,76.3,30.04,SE,135,1.8,2.2,76,0.00,,,0.00,WUHU216HW,2013-07-09 15:02:00,
2013-07-09 11:03:00,85.0,76.5,30.04,East,90,1.8,2.2,76,0.00,,,0.00,WUHU216HW,2013-07-09 15:03:00,
2013-07-09 11:05:00,85.3,76.9,30.04,SSE,158,2.0,2.2,76,0.00,,,0.00,WUHU216HW,2013-07-09 15:05:00,
2013-07-09 11:06:00,85.7,77.2,30.04,SSE,158,2.5,2.5,76,0.00,,,0.00,WUHU216HW,2013-07-09 15:06:00,
2013-07-09 11:07:00,85.9,77.4,30.04,South,180,3.4,3.4,76,0.00,,,0.00,WUHU216HW,2013-07-09 15:07:00,
2013-07-09 11:09:00,86.4,77.6,30.04,South,187,1.5,3.4,75,0.00,,,0.00,WUHU216HW,2013-07-09 15:09:00,
2013-07-09 11:10:00,86.8,78.0,30.04,SW,216,0.6,3.4,75,0.00,,,0.00,WUHU216HW,2013-07-09 15:10:00,
2013-07-09 11:12:00,87.1,77.9,30.04,ESE,122,2.3,3.4,74,0.00,,,0.00,WUHU216HW,2013-07-09 15:12:00,
2013-07-09 11:15:00,87.5,77.4,30.04,SE,125,3.2,3.6,72,0.00,,,0.00,WUHU216HW,2013-07-09 15:15:00,
2013-07-09 11:17:00,87.7,77.5,30.04,SE,135,3.0,4.0,72,0.00,,,0.00,WUHU216HW,2013-07-09 15:17:00,
2013-07-09 11:18:00,87.7,77.5,30.04,SE,135,3.0,4.0,72,0.00,,,0.00,WUHU216HW,2013-07-09 15:18:00,
2013-07-09 11:21:00,88.2,78.0,30.04,SSW,203,2.5,4.7,72,0.00,,,0.00,WUHU216HW,2013-07-09 15:21:00,
2013-07-09 11:23:00,88.2,78.0,30.04,SSE,158,1.8,4.7,72,0.00,,,0.00,WUHU216HW,2013-07-09 15:23:00,
2013-07-09 11:28:00,88.6,78.0,30.04,ESE,104,2.9,4.0,71,0.00,,,0.00,WUHU216HW,2013-07-09 15:28:00,
2013-07-09 11:29:00,88.4,77.9,30.04,NNE,12,1.5,4.0,71,0.00,,,0.00,WUHU216HW,2013-07-09 15:29:00,
2013-07-09 11:30:00,88.6,77.6,30.04,North,0,1.2,4.0,70,0.00,,,0.00,WUHU216HW,2013-07-09 15:30:00,
2013-07-09 11:34:00,88.7,78.2,30.04,ESE,113,2.9,4.0,71,0.00,,,0.00,WUHU216HW,2013-07-09 15:34:00,
2013-07-09 11:35:00,89.1,78.5,30.04,South,174,3.3,4.0,71,0.00,,,0.00,WUHU216HW,2013-07-09 15:35:00,
2013-07-09 11:39:00,89.5,78.5,30.04,WSW,245,1.8,4.0,70,0.00,,,0.00,WUHU216HW,2013-07-09 15:39:00,
2013-07-09 11:40:00,89.5,78.5,30.04,WSW,245,1.8,4.0,70,0.00,,,0.00,WUHU216HW,2013-07-09 15:40:00,
2013-07-09 11:41:00,89.5,78.0,30.04,WSW,248,6.3,6.3,69,0.00,,,0.00,WUHU216HW,2013-07-09 15:41:00,
2013-07-09 11:45:00,88.9,76.6,30.04,West,270,0.4,6.3,67,0.00,,,0.00,WUHU216HW,2013-07-09 15:45:00,
2013-07-09 11:46:00,88.9,76.6,30.04,West,270,0.4,6.3,67,0.00,,,0.00,WUHU216HW,2013-07-09 15:46:00,
2013-07-09 11:48:00,88.7,76.9,30.04,SW,225,1.1,6.3,68,0.00,,,0.00,WUHU216HW,2013-07-09 15:48:00,
2013-07-09 11:50:00,89.1,77.7,30.04,SW,225,1.1,3.4,69,0.00,,,0.00,WUHU216HW,2013-07-09 15:50:00,
2013-07-09 11:51:00,89.1,77.7,30.04,SW,225,1.1,3.4,69,0.00,,,0.00,WUHU216HW,2013-07-09 15:51:00,
2013-07-09 11:53:00,89.6,78.2,30.04,SSE,164,3.0,4.7,69,0.00,,,0.00,WUHU216HW,2013-07-09 15:53:00,
2013-07-09 11:56:00,90.0,78.0,30.04,West,270,1.1,4.7,68,0.00,,,0.00,WUHU216HW,2013-07-09 15:56:00,
2013-07-09 11:58:00,90.4,78.0,30.04,NW,306,0.6,4.7,67,0.00,,,0.00,WUHU216HW,2013-07-09 15:58:00,
2013-07-09 11:59:00,90.4,78.0,30.04,NW,318,0.3,4.7,67,0.00,,,0.00,WUHU216HW,2013-07-09 15:59:00,
2013-07-09 12:01:00,90.2,77.8,30.04,SW,225,0.9,1.6,67,0.00,,,0.00,WUHU216HW,2013-07-09 16:01:00,
2013-07-09 12:04:00,89.6,77.8,30.04,West,270,1.8,1.8,68,0.00,,,0.00,WUHU216HW,2013-07-09 16:04:00,
2013-07-09 12:06:00,89.5,77.0,30.04,WSW,248,0.0,1.8,67,0.00,,,0.00,WUHU216HW,2013-07-09 16:06:00,
2013-07-09 12:07:00,89.3,77.0,30.04,ESE,113,0.9,1.8,67,0.00,,,0.00,WUHU216HW,2013-07-09 16:07:00,
2013-07-09 12:09:00,89.1,76.8,30.04,ENE,68,1.3,1.8,67,0.00,,,0.00,WUHU216HW,2013-07-09 16:09:00,
2013-07-09 12:10:00,89.1,76.8,30.04,NE,53,0.8,1.8,67,0.00,,,0.00,WUHU216HW,2013-07-09 16:10:00,
2013-07-09 12:11:00,88.9,76.6,30.04,NNE,23,0.4,1.8,67,0.00,,,0.00,WUHU216HW,2013-07-09 16:11:00,
2013-07-09 12:12:00,88.9,76.6,30.04,NNE,23,0.4,1.8,67,0.00,,,0.00,WUHU216HW,2013-07-09 16:12:00,
2013-07-09 12:15:00,88.6,76.7,30.04,West,270,1.1,1.3,68,0.00,,,0.00,WUHU216HW,2013-07-09 16:15:00,
2013-07-09 12:16:00,88.6,76.7,30.04,West,270,1.1,1.3,68,0.00,,,0.00,WUHU216HW,2013-07-09 16:16:00,
2013-07-09 12:17:00,88.6,76.7,30.04,West,270,0.7,1.3,68,0.00,,,0.00,WUHU216HW,2013-07-09 16:17:00,
2013-07-09 12:19:00,88.6,76.7,30.04,West,270,1.8,1.8,68,0.00,,,0.00,WUHU216HW,2013-07-09 16:19:00,
2013-07-09 12:21:00,88.7,76.9,30.04,WSW,248,0.7,1.8,68,0.00,,,0.00,WUHU216HW,2013-07-09 16:21:00,
2013-07-09 12:22:00,88.7,76.9,30.04,WSW,248,0.7,1.8,68,0.00,,,0.00,WUHU216HW,2013-07-09 16:22:00,
2013-07-09 12:24:00,89.3,77.4,30.04,SE,135,1.1,1.8,68,0.00,,,0.00,WUHU216HW,2013-07-09 16:24:00,
2013-07-09 12:27:00,89.6,77.8,30.04,ESE,113,2.5,2.5,68,0.00,,,0.00,WUHU216HW,2013-07-09 16:27:00,
2013-07-09 12:28:00,90.0,77.6,30.04,ESE,122,2.2,2.5,67,0.00,,,0.00,WUHU216HW,2013-07-09 16:28:00,
2013-07-09 12:30:00,90.7,78.2,30.04,SE,142,0.6,2.5,67,0.00,,,0.00,WUHU216HW,2013-07-09 16:30:00,
2013-07-09 12:32:00,91.1,78.6,30.04,South,180,1.1,2.5,67,0.00,,,0.00,WUHU216HW,2013-07-09 16:32:00,
2013-07-09 12:33:00,91.1,78.6,30.04,South,180,1.1,2.5,67,0.00,,,0.00,WUHU216HW,2013-07-09 16:33:00,
2013-07-09 12:34:00,91.4,78.8,30.04,East,90,1.6,2.5,67,0.00,,,0.00,WUHU216HW,2013-07-09 16:34:00,
2013-07-09 12:35:00,91.6,78.6,30.04,SE,126,2.0,2.5,66,0.00,,,0.00,WUHU216HW,2013-07-09 16:35:00,
2013-07-09 12:38:00,92.0,78.5,30.04,SSW,203,3.8,3.8,65,0.00,,,0.00,WUHU216HW,2013-07-09 16:38:00,
2013-07-09 12:39:00,92.0,78.5,30.04,SSW,203,3.8,3.8,65,0.00,,,0.00,WUHU216HW,2013-07-09 16:39:00,
2013-07-09 12:41:00,92.0,78.0,30.03,SE,125,2.0,3.8,64,0.00,,,0.00,WUHU216HW,2013-07-09 16:41:00,
2013-07-09 12:43:00,92.0,77.6,30.03,NNE,12,0.6,3.8,63,0.00,,,0.00,WUHU216HW,2013-07-09 16:43:00,
2013-07-09 12:45:00,92.0,77.6,30.03,SSE,158,2.9,3.8,63,0.00,,,0.00,WUHU216HW,2013-07-09 16:45:00,
2013-07-09 12:46:00,91.8,77.4,30.03,ESE,113,2.7,3.8,63,0.00,,,0.00,WUHU216HW,2013-07-09 16:46:00,
2013-07-09 12:47:00,91.8,77.4,30.03,ESE,113,2.7,3.8,63,0.00,,,0.00,WUHU216HW,2013-07-09 16:47:00,
2013-07-09 12:49:00,91.8,77.4,30.03,SSW,208,0.8,2.9,63,0.00,,,0.00,WUHU216HW,2013-07-09 16:49:00,
2013-07-09 12:50:00,91.8,77.9,30.03,WSW,248,2.5,2.9,64,0.00,,,0.00,WUHU216HW,2013-07-09 16:50:00,
2013-07-09 12:51:00,91.8,77.4,30.03,WSW,237,1.0,2.9,63,0.00,,,0.00,WUHU216HW,2013-07-09 16:51:00,
2013-07-09 12:52:00,91.8,77.4,30.03,WSW,237,1.0,2.9,63,0.00,,,0.00,WUHU216HW,2013-07-09 16:52:00,
2013-07-09 12:54:00,92.0,77.6,30.03,SE,135,2.2,2.7,63,0.00,,,0.00,WUHU216HW,2013-07-09 16:54:00,
2013-07-09 12:56:00,92.2,77.8,30.03,South,180,4.5,4.5,63,0.00,,,0.00,WUHU216HW,2013-07-09 16:56:00,
2013-07-09 12:57:00,92.2,77.8,30.03,South,180,4.5,4.5,63,0.00,,,0.00,WUHU216HW,2013-07-09 16:57:00,
2013-07-09 12:58:00,92.3,78.0,30.03,South,172,3.6,4.5,63,0.00,,,0.00,WUHU216HW,2013-07-09 16:58:00,
2013-07-09 13:00:00,92.5,78.1,30.03,ESE,122,1.7,4.5,63,0.00,,,0.00,WUHU216HW,2013-07-09 17:00:00,
2013-07-09 13:01:00,92.7,77.8,30.03,SE,127,0.6,4.5,62,0.00,,,0.00,WUHU216HW,2013-07-09 17:01:00,
2013-07-09 13:02:00,92.9,78.5,30.03,SE,135,0.9,4.5,63,0.00,,,0.00,WUHU216HW,2013-07-09 17:02:00,
2013-07-09 13:03:00,93.1,78.1,30.03,ESE,113,2.2,4.5,62,0.00,,,0.00,WUHU216HW,2013-07-09 17:03:00,
2013-07-09 13:05:00,93.2,77.9,30.03,East,82,1.3,4.5,61,0.00,,,0.00,WUHU216HW,2013-07-09 17:05:00,
2013-07-09 13:07:00,93.2,77.4,30.03,East,90,2.0,2.9,60,0.00,,,0.00,WUHU216HW,2013-07-09 17:07:00,
2013-07-09 13:08:00,92.5,76.7,30.03,North,0,1.1,2.2,60,0.00,,,0.00,WUHU216HW,2013-07-09 17:08:00,
2013-07-09 13:10:00,92.0,76.1,30.03,WSW,248,2.2,2.2,60,0.00,,,0.00,WUHU216HW,2013-07-09 17:10:00,
2013-07-09 13:12:00,91.4,76.1,30.03,WSW,248,0.9,2.2,61,0.00,,,0.00,WUHU216HW,2013-07-09 17:12:00,
2013-07-09 13:13:00,91.1,76.2,30.03,WSW,248,0.0,2.2,62,0.00,,,0.00,WUHU216HW,2013-07-09 17:13:00,
2013-07-09 13:14:00,91.1,76.2,30.03,WSW,248,0.0,2.2,62,0.00,,,0.00,WUHU216HW,2013-07-09 17:14:00,
2013-07-09 13:16:00,90.2,75.9,30.03,SSW,203,0.4,2.2,63,0.00,,,0.00,WUHU216HW,2013-07-09 17:16:00,
2013-07-09 13:17:00,89.8,76.1,30.03,SSW,210,0.3,2.2,64,0.00,,,0.00,WUHU216HW,2013-07-09 17:17:00,
2013-07-09 13:18:00,89.5,76.1,30.03,SW,225,1.1,2.2,65,0.00,,,0.00,WUHU216HW,2013-07-09 17:18:00,
2013-07-09 13:19:00,89.1,75.8,30.03,SW,225,1.1,2.2,65,0.00,,,0.00,WUHU216HW,2013-07-09 17:19:00,
2013-07-09 13:20:00,88.9,76.2,30.03,WSW,248,1.1,1.1,66,0.00,,,0.00,WUHU216HW,2013-07-09 17:20:00,
2013-07-09 13:21:00,88.6,75.8,30.03,WSW,248,0.8,1.1,66,0.00,,,0.00,WUHU216HW,2013-07-09 17:21:00,
2013-07-09 13:23:00,88.2,75.9,30.03,West,262,0.3,1.1,67,0.00,,,0.00,WUHU216HW,2013-07-09 17:23:00,
2013-07-09 13:24:00,88.0,75.7,30.03,WSW,248,0.2,1.1,67,0.00,,,0.00,WUHU216HW,2013-07-09 17:24:00,
2013-07-09 13:25:00,87.5,75.6,30.03,West,272,1.5,1.8,68,0.00,,,0.00,WUHU216HW,2013-07-09 17:25:00,
2013-07-09 13:26:00,87.3,75.4,30.03,NW,315,0.7,1.8,68,0.00,,,0.00,WUHU216HW,2013-07-09 17:26:00,
2013-07-09 13:28:00,86.9,75.2,30.03,WNW,293,0.4,1.8,68,0.00,,,0.00,WUHU216HW,2013-07-09 17:28:00,
2013-07-09 13:30:00,86.9,75.6,30.02,NW,315,0.4,1.8,69,0.00,,,0.00,WUHU216HW,2013-07-09 17:30:00,
2013-07-09 13:32:00,86.9,75.6,30.02,WSW,248,0.7,1.8,69,0.00,,,0.00,WUHU216HW,2013-07-09 17:32:00,
2013-07-09 13:33:00,86.9,75.6,30.02,WNW,293,0.9,1.8,69,0.00,,,0.00,WUHU216HW,2013-07-09 17:33:00,
2013-07-09 13:34:00,86.9,75.6,30.02,WNW,293,0.9,1.8,69,0.00,,,0.00,WUHU216HW,2013-07-09 17:34:00,
2013-07-09 13:36:00,86.8,75.4,30.02,NNW,338,0.4,0.9,69,0.00,,,0.00,WUHU216HW,2013-07-09 17:36:00,
2013-07-09 13:38:00,86.6,75.2,30.02,NNW,338,0.3,0.9,69,0.00,,,0.00,WUHU216HW,2013-07-09 17:38:00,
2013-07-09 13:39:00,86.8,75.4,30.02,NNW,338,0.4,0.9,69,0.00,,,0.00,WUHU216HW,2013-07-09 17:39:00,
2013-07-09 13:42:00,87.1,75.8,30.02,NNW,338,0.4,0.9,69,0.00,,,0.00,WUHU216HW,2013-07-09 17:42:00,
2013-07-09 13:43:00,87.1,75.8,30.02,NNW,338,0.4,0.9,69,0.00,,,0.00,WUHU216HW,2013-07-09 17:43:00,
2013-07-09 13:44:00,87.1,75.8,30.02,NNW,338,0.4,0.9,69,0.00,,,0.00,WUHU216HW,2013-07-09 17:44:00,
2013-07-09 13:46:00,87.3,76.0,30.02,North,0,1.1,1.1,69,0.00,,,0.00,WUHU216HW,2013-07-09 17:46:00,
2013-07-09 13:48:00,87.3,76.0,30.02,North,0,1.0,1.1,69,0.00,,,0.00,WUHU216HW,2013-07-09 17:48:00,
2013-07-09 13:49:00,87.5,75.2,30.02,East,90,1.8,1.8,67,0.00,,,0.00,WUHU216HW,2013-07-09 17:49:00,
2013-07-09 13:50:00,87.5,75.6,30.02,ESE,113,2.5,2.5,68,0.00,,,0.00,WUHU216HW,2013-07-09 17:50:00,
2013-07-09 13:51:00,87.7,75.8,30.02,ESE,113,3.4,3.8,68,0.00,,,0.00,WUHU216HW,2013-07-09 17:51:00,
2013-07-09 13:54:00,88.2,76.3,30.02,SE,135,3.4,3.8,68,0.00,,,0.00,WUHU216HW,2013-07-09 17:54:00,
2013-07-09 13:55:00,88.7,76.9,30.02,SSE,158,1.8,3.8,68,0.00,,,0.00,WUHU216HW,2013-07-09 17:55:00,
2013-07-09 13:56:00,88.7,76.9,30.02,SSE,158,1.8,3.8,68,0.00,,,0.00,WUHU216HW,2013-07-09 17:56:00,
2013-07-09 14:00:00,90.2,77.3,30.02,NNE,23,1.8,3.8,66,0.00,,,0.00,WUHU216HW,2013-07-09 18:00:00,
2013-07-09 14:01:00,90.4,77.4,30.02,NE,35,2.0,3.4,66,0.00,,,0.00,WUHU216HW,2013-07-09 18:01:00,
2013-07-09 14:06:00,89.3,76.4,30.01,SSW,203,1.3,2.5,66,0.00,,,0.00,WUHU216HW,2013-07-09 18:06:00,
2013-07-09 14:07:00,89.1,76.2,30.01,South,180,2.5,2.5,66,0.00,,,0.00,WUHU216HW,2013-07-09 18:07:00,
2013-07-09 14:11:00,89.3,77.0,30.01,SSE,152,1.5,2.5,67,0.00,,,0.00,WUHU216HW,2013-07-09 18:11:00,
2013-07-09 14:12:00,89.3,77.0,30.01,SE,135,2.5,2.5,67,0.00,,,0.00,WUHU216HW,2013-07-09 18:12:00,
2013-07-09 14:13:00,89.3,77.0,30.01,SE,135,4.3,4.3,67,0.00,,,0.00,WUHU216HW,2013-07-09 18:13:00,
2013-07-09 14:17:00,89.3,77.0,30.01,ESE,102,2.0,4.3,67,0.00,,,0.00,WUHU216HW,2013-07-09 18:17:00,
2013-07-09 14:18:00,89.6,77.2,30.01,East,90,1.1,4.3,67,0.00,,,0.00,WUHU216HW,2013-07-09 18:18:00,
2013-07-09 14:19:00,89.6,77.2,30.01,ESE,113,2.9,4.3,67,0.00,,,0.00,WUHU216HW,2013-07-09 18:19:00,
2013-07-09 14:22:00,89.6,76.8,30.01,ESE,113,4.3,4.3,66,0.00,,,0.00,WUHU216HW,2013-07-09 18:22:00,
2013-07-09 14:23:00,89.3,77.0,30.01,ESE,113,3.6,4.3,67,0.00,,,0.00,WUHU216HW,2013-07-09 18:23:00,
2013-07-09 14:24:00,89.1,76.8,30.01,ESE,113,3.4,4.3,67,0.00,,,0.00,WUHU216HW,2013-07-09 18:24:00,
2013-07-09 14:28:00,88.7,76.0,30.00,East,90,2.9,4.3,66,0.00,,,0.00,WUHU216HW,2013-07-09 18:28:00,
2013-07-09 14:29:00,88.6,76.2,30.00,East,100,2.7,4.3,67,0.00,,,0.00,WUHU216HW,2013-07-09 18:29:00,
2013-07-09 14:30:00,88.6,76.2,30.00,ESE,113,2.3,4.3,67,0.00,,,0.00,WUHU216HW,2013-07-09 18:30:00,
2013-07-09 14:33:00,88.6,76.2,30.00,SE,135,0.9,3.4,67,0.00,,,0.00,WUHU216HW,2013-07-09 18:33:00,
2013-07-09 14:34:00,88.6,76.2,30.00,SE,135,0.6,2.9,67,0.00,,,0.00,WUHU216HW,2013-07-09 18:34:00,
2013-07-09 14:35:00,88.6,76.2,30.00,SE,135,0.6,2.9,67,0.00,,,0.00,WUHU216HW,2013-07-09 18:35:00,
2013-07-09 14:38:00,88.9,76.6,30.00,SSE,158,1.8,2.5,67,0.00,,,0.00,WUHU216HW,2013-07-09 18:38:00,
2013-07-09 14:39:00,88.9,76.6,30.00,SSE,150,1.3,2.2,67,0.00,,,0.00,WUHU216HW,2013-07-09 18:39:00,
2013-07-09 14:40:00,89.1,76.8,30.00,ESE,113,2.7,2.7,67,0.00,,,0.00,WUHU216HW,2013-07-09 18:40:00,
2013-07-09 14:41:00,89.3,77.0,30.00,SE,135,3.4,3.4,67,0.00,,,0.00,WUHU216HW,2013-07-09 18:41:00,
2013-07-09 14:43:00,89.5,77.6,30.00,SE,126,1.9,3.4,68,0.00,,,0.00,WUHU216HW,2013-07-09 18:43:00,
2013-07-09 14:44:00,89.8,77.9,29.99,ESE,123,3.3,3.4,68,0.00,,,0.00,WUHU216HW,2013-07-09 18:44:00,
2013-07-09 14:45:00,90.2,77.8,29.99,SE,130,2.0,3.4,67,0.00,,,0.00,WUHU216HW,2013-07-09 18:45:00,
2013-07-09 14:46:00,90.2,77.8,29.99,SE,130,2.0,3.4,67,0.00,,,0.00,WUHU216HW,2013-07-09 18:46:00,
2013-07-09 14:49:00,90.7,77.8,29.99,East,86,1.7,3.4,66,0.00,,,0.00,WUHU216HW,2013-07-09 18:49:00,
2013-07-09 14:50:00,90.7,76.3,29.99,North,11,0.8,3.4,63,0.00,,,0.00,WUHU216HW,2013-07-09 18:50:00,
2013-07-09 14:51:00,90.7,77.3,29.99,South,180,1.8,3.4,65,0.00,,,0.00,WUHU216HW,2013-07-09 18:51:00,
2013-07-09 14:53:00,91.1,78.1,30.00,SW,227,1.5,3.1,66,0.00,,,0.00,WUHU216HW,2013-07-09 18:53:00,
2013-07-09 14:54:00,91.1,78.1,30.00,SW,227,1.5,2.2,66,0.00,,,0.00,WUHU216HW,2013-07-09 18:54:00,
2013-07-09 14:55:00,91.4,78.4,29.99,SW,225,1.8,2.2,66,0.00,,,0.00,WUHU216HW,2013-07-09 18:55:00,
2013-07-09 14:57:00,91.8,78.3,29.99,ESE,113,4.0,4.0,65,0.00,,,0.00,WUHU216HW,2013-07-09 18:57:00,
2013-07-09 14:58:00,92.0,78.5,29.99,ESE,113,3.0,4.0,65,0.00,,,0.00,WUHU216HW,2013-07-09 18:58:00,
2013-07-09 14:59:00,92.3,78.4,29.99,SE,135,5.4,5.4,64,0.00,,,0.00,WUHU216HW,2013-07-09 18:59:00,
2013-07-09 15:01:00,92.3,77.4,29.99,SE,136,4.5,5.4,62,0.00,,,0.00,WUHU216HW,2013-07-09 19:01:00,
2013-07-09 15:02:00,92.5,77.6,29.99,South,174,3.1,5.4,62,0.00,,,0.00,WUHU216HW,2013-07-09 19:02:00,
2013-07-09 15:03:00,92.5,77.6,29.99,ESE,113,2.1,5.4,62,0.00,,,0.00,WUHU216HW,2013-07-09 19:03:00,
2013-07-09 15:04:00,92.3,77.4,29.99,ESE,113,1.9,5.4,62,0.00,,,0.00,WUHU216HW,2013-07-09 19:04:00,
2013-07-09 15:06:00,92.2,75.8,29.99,NE,45,2.2,5.4,59,0.00,,,0.00,WUHU216HW,2013-07-09 19:06:00,
2013-07-09 15:07:00,91.8,76.0,29.99,ENE,77,2.1,5.4,60,0.00,,,0.00,WUHU216HW,2013-07-09 19:07:00,
2013-07-09 15:08:00,91.6,76.2,29.99,East,90,2.2,4.7,61,0.00,,,0.00,WUHU216HW,2013-07-09 19:08:00,
2013-07-09 15:11:00,91.1,76.2,29.99,ESE,113,3.4,3.8,62,0.00,,,0.00,WUHU216HW,2013-07-09 19:11:00,
2013-07-09 15:12:00,91.1,76.7,29.99,ESE,113,3.0,3.8,63,0.00,,,0.00,WUHU216HW,2013-07-09 19:12:00,
2013-07-09 15:13:00,91.1,76.7,29.99,ESE,102,2.3,3.8,63,0.00,,,0.00,WUHU216HW,2013-07-09 19:13:00,
2013-07-09 15:14:00,91.1,76.7,29.99,NE,45,2.5,3.8,63,0.00,,,0.00,WUHU216HW,2013-07-09 19:14:00,
2013-07-09 15:16:00,90.7,75.4,29.99,NNE,15,2.0,3.8,61,0.00,,,0.00,WUHU216HW,2013-07-09 19:16:00,
2013-07-09 15:17:00,90.7,75.9,29.99,NE,45,1.3,3.8,62,0.00,,,0.00,WUHU216HW,2013-07-09 19:17:00,
2013-07-09 15:19:00,90.7,75.9,29.98,NE,35,1.9,3.4,62,0.00,,,0.00,WUHU216HW,2013-07-09 19:19:00,
2013-07-09 15:20:00,90.7,75.9,29.98,NE,35,1.9,3.4,62,0.00,,,0.00,WUHU216HW,2013-07-09 19:20:00,
2013-07-09 15:22:00,90.9,75.6,29.98,NE,45,2.7,5.4,61,0.00,,,0.00,WUHU216HW,2013-07-09 19:22:00,
2013-07-09 15:25:00,90.5,74.8,29.98,NE,54,1.5,5.4,60,0.00,,,0.00,WUHU216HW,2013-07-09 19:25:00,
2013-07-09 15:26:00,90.4,74.1,29.98,NE,45,3.4,5.4,59,0.00,,,0.00,WUHU216HW,2013-07-09 19:26:00,
2013-07-09 15:27:00,90.4,74.6,29.98,NE,45,3.4,5.4,60,0.00,,,0.00,WUHU216HW,2013-07-09 19:27:00,
2013-07-09 15:28:00,90.4,75.1,29.98,ESE,113,2.0,5.4,61,0.00,,,0.00,WUHU216HW,2013-07-09 19:28:00,
2013-07-09 15:31:00,90.7,74.4,29.98,East,90,4.7,4.7,59,0.00,,,0.00,WUHU216HW,2013-07-09 19:31:00,
2013-07-09 15:33:00,90.9,74.6,29.98,East,80,3.7,4.7,59,0.00,,,0.00,WUHU216HW,2013-07-09 19:33:00,
2013-07-09 15:34:00,90.9,74.1,29.97,North,0,2.5,4.7,58,0.00,,,0.00,WUHU216HW,2013-07-09 19:34:00,
2013-07-09 15:38:00,90.9,75.6,29.97,SE,135,0.2,4.7,61,0.00,,,0.00,WUHU216HW,2013-07-09 19:38:00,
2013-07-09 15:39:00,90.9,75.6,29.97,SE,135,0.2,4.7,61,0.00,,,0.00,WUHU216HW,2013-07-09 19:39:00,
2013-07-09 15:44:00,92.2,76.8,29.97,SW,222,0.8,2.5,61,0.00,,,0.00,WUHU216HW,2013-07-09 19:44:00,
2013-07-09 15:45:00,92.3,77.0,29.97,SW,235,1.0,2.5,61,0.00,,,0.00,WUHU216HW,2013-07-09 19:45:00,
2013-07-09 15:46:00,92.5,77.1,29.98,South,180,0.7,1.6,61,0.00,,,0.00,WUHU216HW,2013-07-09 19:46:00,
2013-07-09 15:49:00,93.1,77.2,29.97,ESE,113,2.7,3.1,60,0.00,,,0.00,WUHU216HW,2013-07-09 19:49:00,
2013-07-09 15:50:00,93.1,77.2,29.97,ESE,113,2.7,3.1,60,0.00,,,0.00,WUHU216HW,2013-07-09 19:50:00,
2013-07-09 15:51:00,93.2,76.3,29.97,NE,45,3.4,3.4,58,0.00,,,0.00,WUHU216HW,2013-07-09 19:51:00,
2013-07-09 15:52:00,93.2,76.9,29.97,ENE,60,2.3,3.4,59,0.00,,,0.00,WUHU216HW,2013-07-09 19:52:00,
2013-07-09 15:54:00,93.1,76.7,29.97,NE,36,2.3,3.4,59,0.00,,,0.00,WUHU216HW,2013-07-09 19:54:00,
2013-07-09 15:55:00,93.1,76.7,29.97,NE,36,2.3,3.4,59,0.00,,,0.00,WUHU216HW,2013-07-09 19:55:00,
2013-07-09 15:56:00,92.7,76.3,29.97,North,0,1.8,3.4,59,0.00,,,0.00,WUHU216HW,2013-07-09 19:56:00,
2013-07-09 15:57:00,92.7,76.3,29.97,North,0,1.8,3.4,59,0.00,,,0.00,WUHU216HW,2013-07-09 19:57:00,
2013-07-09 15:59:00,91.8,74.9,29.97,NNE,12,4.4,4.9,58,0.00,,,0.00,WUHU216HW,2013-07-09 19:59:00,
2013-07-09 16:00:00,91.8,74.9,29.97,NNE,20,3.9,4.9,58,0.00,,,0.00,WUHU216HW,2013-07-09 20:00:00,
2013-07-09 16:02:00,91.1,74.7,29.97,NE,45,1.1,4.9,59,0.00,,,0.00,WUHU216HW,2013-07-09 20:02:00,
2013-07-09 16:04:00,90.7,75.0,29.97,North,0,1.1,4.9,60,0.00,,,0.00,WUHU216HW,2013-07-09 20:04:00,
2013-07-09 16:06:00,90.4,75.6,29.97,WSW,248,1.3,4.9,62,0.00,,,0.00,WUHU216HW,2013-07-09 20:06:00,
2013-07-09 16:07:00,90.4,75.6,29.97,SW,232,1.0,4.9,62,0.00,,,0.00,WUHU216HW,2013-07-09 20:07:00,
2013-07-09 16:08:00,90.4,75.6,29.97,SSE,158,2.5,4.9,62,0.00,,,0.00,WUHU216HW,2013-07-09 20:08:00,
2013-07-09 16:09:00,90.4,75.6,29.97,South,185,2.2,4.0,62,0.00,,,0.00,WUHU216HW,2013-07-09 20:09:00,
2013-07-09 16:12:00,90.2,75.4,29.97,North,356,0.3,2.5,62,0.00,,,0.00,WUHU216HW,2013-07-09 20:12:00,
2013-07-09 16:13:00,90.0,75.2,29.97,WNW,293,0.2,2.5,62,0.00,,,0.00,WUHU216HW,2013-07-09 20:13:00,
2013-07-09 16:14:00,90.0,75.7,29.97,NNE,23,0.4,2.5,63,0.00,,,0.00,WUHU216HW,2013-07-09 20:14:00,
2013-07-09 16:15:00,89.8,75.5,29.97,North,356,0.3,2.5,63,0.00,,,0.00,WUHU216HW,2013-07-09 20:15:00,
2013-07-09 16:17:00,89.6,75.9,29.97,SW,225,1.1,2.5,64,0.00,,,0.00,WUHU216HW,2013-07-09 20:17:00,
2013-07-09 16:19:00,89.5,76.1,29.97,SW,220,0.6,1.1,65,0.00,,,0.00,WUHU216HW,2013-07-09 20:19:00,
2013-07-09 16:22:00,89.1,75.8,29.97,SSW,203,0.0,1.1,65,0.00,,,0.00,WUHU216HW,2013-07-09 20:22:00,
2013-07-09 16:24:00,88.7,76.0,29.97,West,270,0.9,1.1,66,0.00,,,0.00,WUHU216HW,2013-07-09 20:24:00,
2013-07-09 16:25:00,88.7,76.0,29.97,West,270,0.9,1.1,66,0.00,,,0.00,WUHU216HW,2013-07-09 20:25:00,
2013-07-09 16:26:00,88.7,76.0,29.97,WNW,293,0.0,1.1,66,0.00,,,0.00,WUHU216HW,2013-07-09 20:26:00,
2013-07-09 16:27:00,88.7,76.4,29.97,NW,315,0.4,0.9,67,0.00,,,0.00,WUHU216HW,2013-07-09 20:27:00,
2013-07-09 16:29:00,88.7,76.4,29.97,SSE,158,1.1,1.1,67,0.00,,,0.00,WUHU216HW,2013-07-09 20:29:00,
2013-07-09 16:30:00,88.7,76.4,29.97,South,169,0.8,1.1,67,0.00,,,0.00,WUHU216HW,2013-07-09 20:30:00,
2013-07-09 16:31:00,88.7,76.4,29.97,North,0,1.3,1.3,67,0.00,,,0.00,WUHU216HW,2013-07-09 20:31:00,
2013-07-09 16:32:00,88.7,76.4,29.97,NNE,31,1.2,1.3,67,0.01,,,0.01,WUHU216HW,2013-07-09 20:32:00,
2013-07-09 16:35:00,88.2,76.8,29.96,East,90,2.5,2.5,69,0.01,,,0.01,WUHU216HW,2013-07-09 20:35:00,
2013-07-09 16:37:00,87.8,76.4,29.96,East,81,2.0,2.5,69,0.01,,,0.01,WUHU216HW,2013-07-09 20:37:00,
2013-07-09 16:38:00,87.5,76.1,29.96,East,90,1.6,2.5,69,0.01,,,0.01,WUHU216HW,2013-07-09 20:38:00,
2013-07-09 16:40:00,86.4,75.6,29.96,East,90,3.4,3.4,70,0.01,,,0.01,WUHU216HW,2013-07-09 20:40:00,
2013-07-09 16:42:00,85.9,75.4,29.96,NE,45,2.0,3.4,71,0.01,,,0.01,WUHU216HW,2013-07-09 20:42:00,
2013-07-09 16:43:00,85.7,75.2,29.96,ESE,113,2.5,3.4,71,0.01,,,0.01,WUHU216HW,2013-07-09 20:43:00,
2013-07-09 16:44:00,85.5,74.7,29.96,NNE,23,2.5,3.4,70,0.01,,,0.01,WUHU216HW,2013-07-09 20:44:00,
2013-07-09 16:45:00,85.3,74.5,29.96,NNE,30,1.9,3.4,70,0.01,,,0.01,WUHU216HW,2013-07-09 20:45:00,
2013-07-09 16:48:00,84.6,73.4,29.96,ENE,68,3.1,4.7,69,0.01,,,0.01,WUHU216HW,2013-07-09 20:48:00,
2013-07-09 16:50:00,84.1,74.1,29.96,ESE,113,2.2,4.7,72,0.01,,,0.01,WUHU216HW,2013-07-09 20:50:00,
2013-07-09 16:51:00,84.1,73.6,29.95,NNE,23,2.2,4.7,71,0.01,,,0.01,WUHU216HW,2013-07-09 20:51:00,
2013-07-09 16:54:00,84.1,73.3,29.96,ENE,68,2.9,4.7,70,0.01,,,0.01,WUHU216HW,2013-07-09 20:54:00,
2013-07-09 16:55:00,83.9,72.6,29.95,East,98,2.7,4.7,69,0.01,,,0.01,WUHU216HW,2013-07-09 20:55:00,
2013-07-09 16:56:00,83.9,72.6,29.95,East,98,2.7,4.7,69,0.01,,,0.01,WUHU216HW,2013-07-09 20:56:00,
2013-07-09 16:57:00,83.9,72.6,29.95,East,90,3.4,3.4,69,0.01,,,0.01,WUHU216HW,2013-07-09 20:57:00,
2013-07-09 17:00:00,84.6,73.8,29.95,SE,127,1.9,3.6,70,0.01,,,0.01,WUHU216HW,2013-07-09 21:00:00,
2013-07-09 17:01:00,84.6,73.8,29.95,ESE,120,1.5,3.6,70,0.01,,,0.01,WUHU216HW,2013-07-09 21:01:00,
2013-07-09 17:02:00,85.0,74.2,29.95,SE,135,2.5,3.6,70,0.01,,,0.01,WUHU216HW,2013-07-09 21:02:00,
2013-07-09 17:03:00,85.1,74.3,29.95,SSW,203,2.5,3.6,70,0.01,,,0.01,WUHU216HW,2013-07-09 21:03:00,
2013-07-09 17:06:00,85.7,74.4,29.95,SE,135,1.7,3.6,69,0.01,,,0.01,WUHU216HW,2013-07-09 21:06:00,
2013-07-09 17:07:00,85.9,74.6,29.95,SE,135,0.6,3.6,69,0.01,,,0.01,WUHU216HW,2013-07-09 21:07:00,
2013-07-09 17:08:00,85.9,74.6,29.95,SE,135,0.6,3.6,69,0.01,,,0.01,WUHU216HW,2013-07-09 21:08:00,
2013-07-09 17:10:00,86.2,74.4,29.95,ESE,113,2.7,2.7,68,0.01,,,0.01,WUHU216HW,2013-07-09 21:10:00,
2013-07-09 17:12:00,86.4,74.6,29.94,ESE,113,3.3,4.5,68,0.01,,,0.01,WUHU216HW,2013-07-09 21:12:00,
2013-07-09 17:13:00,86.4,74.2,29.94,East,90,3.1,4.5,67,0.01,,,0.01,WUHU216HW,2013-07-09 21:13:00,
2013-07-09 17:14:00,86.4,74.6,29.94,East,100,2.8,4.5,68,0.01,,,0.01,WUHU216HW,2013-07-09 21:14:00,
2013-07-09 17:15:00,86.6,74.8,29.94,ESE,122,2.3,4.5,68,0.01,,,0.01,WUHU216HW,2013-07-09 21:15:00,
2013-07-09 17:19:00,86.8,75.0,29.94,ESE,113,3.4,4.5,68,0.01,,,0.01,WUHU216HW,2013-07-09 21:19:00,
2013-07-09 17:20:00,86.8,75.4,29.94,SSE,158,2.5,4.0,69,0.01,,,0.01,WUHU216HW,2013-07-09 21:20:00,
2013-07-09 17:21:00,86.8,75.4,29.94,SSE,158,2.5,4.0,69,0.01,,,0.01,WUHU216HW,2013-07-09 21:21:00,
2013-07-09 17:22:00,86.8,75.4,29.94,SE,140,2.0,4.0,69,0.01,,,0.01,WUHU216HW,2013-07-09 21:22:00,
2013-07-09 17:24:00,86.9,75.6,29.94,ESE,113,3.4,4.0,69,0.01,,,0.01,WUHU216HW,2013-07-09 21:24:00,
2013-07-09 17:25:00,86.9,75.6,29.94,ESE,113,3.4,4.0,69,0.01,,,0.01,WUHU216HW,2013-07-09 21:25:00,
2013-07-09 17:26:00,86.9,75.6,29.94,SE,135,4.9,4.9,69,0.01,,,0.01,WUHU216HW,2013-07-09 21:26:00,
2013-07-09 17:27:00,86.9,75.6,29.94,SE,128,3.6,4.9,69,0.01,,,0.01,WUHU216HW,2013-07-09 21:27:00,
2013-07-09 17:29:00,86.9,75.6,29.94,ESE,120,1.5,4.9,69,0.01,,,0.01,WUHU216HW,2013-07-09 21:29:00,
2013-07-09 17:30:00,86.9,75.6,29.94,ESE,113,2.0,4.9,69,0.01,,,0.01,WUHU216HW,2013-07-09 21:30:00,
2013-07-09 17:32:00,87.1,75.8,29.94,ESE,113,2.9,4.9,69,0.00,,,0.01,WUHU216HW,2013-07-09 21:32:00,
2013-07-09 17:34:00,86.9,75.6,29.94,SE,135,1.9,4.9,69,0.00,,,0.01,WUHU216HW,2013-07-09 21:34:00,
2013-07-09 17:35:00,87.1,75.8,29.94,SE,139,1.1,4.9,69,0.00,,,0.01,WUHU216HW,2013-07-09 21:35:00,
2013-07-09 17:38:00,86.9,75.6,29.94,ESE,113,1.1,2.9,69,0.00,,,0.01,WUHU216HW,2013-07-09 21:38:00,
2013-07-09 17:39:00,86.9,76.1,29.94,SE,135,1.8,2.9,70,0.00,,,0.01,WUHU216HW,2013-07-09 21:39:00,
2013-07-09 17:40:00,86.9,76.1,29.94,SE,135,1.8,2.9,70,0.00,,,0.01,WUHU216HW,2013-07-09 21:40:00,
2013-07-09 17:41:00,86.8,75.9,29.94,ESE,113,2.0,2.9,70,0.00,,,0.01,WUHU216HW,2013-07-09 21:41:00,
2013-07-09 17:43:00,86.8,75.9,29.94,ESE,113,1.8,2.0,70,0.00,,,0.01,WUHU216HW,2013-07-09 21:43:00,
2013-07-09 17:45:00,86.8,75.9,29.94,SE,135,1.8,2.0,70,0.00,,,0.01,WUHU216HW,2013-07-09 21:45:00,
2013-07-09 17:46:00,86.8,75.9,29.94,SE,128,1.3,2.0,70,0.00,,,0.01,WUHU216HW,2013-07-09 21:46:00,
2013-07-09 17:47:00,86.8,75.9,29.94,SE,128,1.3,2.0,70,0.00,,,0.01,WUHU216HW,2013-07-09 21:47:00,
2013-07-09 17:49:00,86.6,76.2,29.94,SSE,158,1.1,2.0,71,0.00,,,0.01,WUHU216HW,2013-07-09 21:49:00,
2013-07-09 17:50:00,86.6,76.2,29.94,East,90,1.1,2.0,71,0.00,,,0.01,WUHU216HW,2013-07-09 21:50:00,
2013-07-09 17:51:00,86.6,76.2,29.94,East,90,1.1,1.8,71,0.00,,,0.01,WUHU216HW,2013-07-09 21:51:00,
2013-07-09 17:52:00,86.6,76.2,29.94,SE,135,1.8,1.8,71,0.00,,,0.01,WUHU216HW,2013-07-09 21:52:00,
2013-07-09 17:53:00,86.6,76.2,29.94,SE,135,2.2,2.2,71,0.00,,,0.01,WUHU216HW,2013-07-09 21:53:00,
2013-07-09 17:54:00,86.4,76.0,29.94,SE,126,1.9,2.2,71,0.00,,,0.01,WUHU216HW,2013-07-09 21:54:00,
2013-07-09 17:55:00,86.4,76.0,29.94,ESE,119,1.1,2.2,71,0.00,,,0.01,WUHU216HW,2013-07-09 21:55:00,
2013-07-09 17:57:00,86.2,76.2,29.94,ESE,113,0.7,2.2,72,0.00,,,0.01,WUHU216HW,2013-07-09 21:57:00,
2013-07-09 17:58:00,86.2,76.2,29.94,ESE,113,0.4,2.2,72,0.00,,,0.01,WUHU216HW,2013-07-09 21:58:00,
2013-07-09 18:00:00,86.2,76.2,29.94,ESE,120,0.3,2.2,72,0.00,,,0.01,WUHU216HW,2013-07-09 22:00:00,
2013-07-09 18:01:00,86.4,76.3,29.94,SE,135,0.2,2.2,72,0.00,,,0.01,WUHU216HW,2013-07-09 22:01:00,
2013-07-09 18:02:00,86.4,76.3,29.95,SE,135,0.0,2.2,72,0.00,,,0.01,WUHU216HW,2013-07-09 22:02:00,
2013-07-09 18:04:00,86.4,76.3,29.95,SE,135,0.2,0.7,72,0.00,,,0.01,WUHU216HW,2013-07-09 22:04:00,
2013-07-09 18:05:00,86.4,76.3,29.94,SSE,158,0.0,0.7,72,0.00,,,0.01,WUHU216HW,2013-07-09 22:05:00,
2013-07-09 18:07:00,86.4,76.3,29.94,SE,135,0.4,0.4,72,0.00,,,0.01,WUHU216HW,2013-07-09 22:07:00,
2013-07-09 18:09:00,86.2,76.6,29.94,SSE,158,0.4,0.4,73,0.00,,,0.01,WUHU216HW,2013-07-09 22:09:00,
2013-07-09 18:10:00,86.4,76.8,29.94,South,180,0.7,0.7,73,0.00,,,0.01,WUHU216HW,2013-07-09 22:10:00,
2013-07-09 18:14:00,86.4,76.8,29.94,SSE,158,0.2,0.7,73,0.00,,,0.01,WUHU216HW,2013-07-09 22:14:00,
2013-07-09 18:15:00,86.4,76.8,29.94,SE,135,0.7,0.7,73,0.00,,,0.01,WUHU216HW,2013-07-09 22:15:00,
2013-07-09 18:16:00,86.4,76.8,29.94,SE,135,0.7,0.7,73,0.00,,,0.01,WUHU216HW,2013-07-09 22:16:00,
2013-07-09 18:19:00,86.4,76.8,29.94,SE,135,0.4,0.7,73,0.00,,,0.01,WUHU216HW,2013-07-09 22:19:00,
2013-07-09 18:20:00,86.4,76.8,29.94,SE,135,0.9,0.9,73,0.00,,,0.01,WUHU216HW,2013-07-09 22:20:00,
2013-07-09 18:21:00,86.2,76.6,29.94,SE,135,0.9,0.9,73,0.00,,,0.01,WUHU216HW,2013-07-09 22:21:00,
2013-07-09 18:24:00,86.0,76.4,29.94,SE,135,0.6,0.9,73,0.00,,,0.01,WUHU216HW,2013-07-09 22:24:00,
2013-07-09 18:26:00,86.0,76.4,29.94,South,180,0.9,0.9,73,0.00,,,0.01,WUHU216HW,2013-07-09 22:26:00,
2013-07-09 18:28:00,85.9,76.2,29.94,ESE,118,0.8,1.1,73,0.00,,,0.01,WUHU216HW,2013-07-09 22:28:00,
2013-07-09 18:31:00,85.9,76.7,29.94,ESE,113,1.1,1.1,74,0.00,,,0.01,WUHU216HW,2013-07-09 22:31:00,
2013-07-09 18:32:00,85.9,76.7,29.94,ESE,113,0.4,1.1,74,0.00,,,0.01,WUHU216HW,2013-07-09 22:32:00,
2013-07-09 18:33:00,85.9,76.7,29.94,ESE,113,0.4,1.1,74,0.00,,,0.01,WUHU216HW,2013-07-09 22:33:00,
2013-07-09 18:34:00,85.9,76.7,29.94,ESE,113,0.0,1.1,74,0.00,,,0.01,WUHU216HW,2013-07-09 22:34:00,
2013-07-09 18:36:00,85.9,76.7,29.94,ESE,113,0.0,1.1,74,0.00,,,0.01,WUHU216HW,2013-07-09 22:36:00,
2013-07-09 18:38:00,85.7,76.9,29.94,ESE,113,0.0,1.1,75,0.00,,,0.01,WUHU216HW,2013-07-09 22:38:00,
2013-07-09 18:39:00,85.7,76.9,29.94,ESE,113,0.0,1.1,75,0.00,,,0.01,WUHU216HW,2013-07-09 22:39:00,
2013-07-09 18:40:00,85.7,76.9,29.94,ESE,113,0.0,0.4,75,0.00,,,0.01,WUHU216HW,2013-07-09 22:40:00,
2013-07-09 18:42:00,85.5,76.7,29.93,ESE,113,0.0,0.0,75,0.00,,,0.01,WUHU216HW,2013-07-09 22:42:00,
2013-07-09 18:44:00,85.5,76.7,29.94,ESE,113,0.0,0.0,75,0.00,,,0.01,WUHU216HW,2013-07-09 22:44:00,
2013-07-09 18:45:00,85.5,77.0,29.94,ESE,113,0.0,0.0,76,0.00,,,0.01,WUHU216HW,2013-07-09 22:45:00,
2013-07-09 18:47:00,85.7,77.2,29.94,NW,315,1.1,1.1,76,0.00,,,0.01,WUHU216HW,2013-07-09 22:47:00,
2013-07-09 18:48:00,85.7,77.2,29.94,NW,315,0.7,1.1,76,0.00,,,0.01,WUHU216HW,2013-07-09 22:48:00,
2013-07-09 18:49:00,85.7,77.2,29.94,NNW,338,0.4,1.1,76,0.00,,,0.01,WUHU216HW,2013-07-09 22:49:00,
2013-07-09 18:50:00,85.7,77.2,29.94,North,0,2.5,2.5,76,0.00,,,0.01,WUHU216HW,2013-07-09 22:50:00,
2013-07-09 18:52:00,85.9,77.4,29.93,North,351,1.5,2.5,76,0.00,,,0.01,WUHU216HW,2013-07-09 22:52:00,
2013-07-09 18:53:00,85.9,77.4,29.93,North,351,1.5,2.5,76,0.00,,,0.01,WUHU216HW,2013-07-09 22:53:00,
2013-07-09 18:54:00,86.0,77.2,29.93,NW,315,1.1,2.5,75,0.00,,,0.01,WUHU216HW,2013-07-09 22:54:00,
2013-07-09 18:56:00,86.0,77.2,29.93,North,0,1.2,2.5,75,0.00,,,0.01,WUHU216HW,2013-07-09 22:56:00,
2013-07-09 18:58:00,86.0,77.2,29.93,NNW,346,0.6,2.5,75,0.00,,,0.01,WUHU216HW,2013-07-09 22:58:00,
2013-07-09 18:59:00,86.0,77.2,29.93,North,0,0.4,2.5,75,0.00,,,0.01,WUHU216HW,2013-07-09 22:59:00,
2013-07-09 19:01:00,86.0,76.9,29.93,WNW,293,0.9,1.3,74,0.00,,,0.01,WUHU216HW,2013-07-09 23:01:00,
2013-07-09 19:03:00,86.2,77.4,29.93,WNW,293,0.0,1.3,75,0.00,,,0.01,WUHU216HW,2013-07-09 23:03:00,
2013-07-09 19:04:00,86.2,77.4,29.93,WNW,293,0.0,1.3,75,0.00,,,0.01,WUHU216HW,2013-07-09 23:04:00,
2013-07-09 19:07:00,86.6,77.3,29.94,NE,55,1.1,1.8,74,0.00,,,0.01,WUHU216HW,2013-07-09 23:07:00,
2013-07-09 19:09:00,86.6,77.3,29.94,North,0,0.0,1.8,74,0.00,,,0.01,WUHU216HW,2013-07-09 23:09:00,
2013-07-09 19:11:00,86.4,76.8,29.94,NE,45,2.5,2.5,73,0.00,,,0.01,WUHU216HW,2013-07-09 23:11:00,
2013-07-09 19:12:00,86.4,76.8,29.94,NE,42,1.5,2.5,73,0.00,,,0.01,WUHU216HW,2013-07-09 23:12:00,
2013-07-09 19:15:00,86.0,76.1,29.94,ENE,68,0.9,4.0,72,0.00,,,0.01,WUHU216HW,2013-07-09 23:15:00,
2013-07-09 19:16:00,85.9,76.2,29.94,NE,48,0.6,4.0,73,0.00,,,0.01,WUHU216HW,2013-07-09 23:16:00,
2013-07-09 19:17:00,85.7,76.1,29.94,ENE,68,1.8,4.0,73,0.00,,,0.01,WUHU216HW,2013-07-09 23:17:00,
2013-07-09 19:19:00,85.5,75.9,29.94,SE,135,0.9,4.0,73,0.00,,,0.01,WUHU216HW,2013-07-09 23:19:00,
2013-07-09 19:21:00,85.5,75.9,29.94,ENE,69,2.3,4.0,73,0.00,,,0.01,WUHU216HW,2013-07-09 23:21:00,
2013-07-09 19:22:00,85.5,75.9,29.94,East,90,2.5,4.0,73,0.00,,,0.01,WUHU216HW,2013-07-09 23:22:00,
2013-07-09 19:24:00,85.5,76.3,29.94,ESE,113,2.2,2.5,74,0.00,,,0.01,WUHU216HW,2013-07-09 23:24:00,
2013-07-09 19:25:00,85.7,76.5,29.94,ESE,104,1.8,2.5,74,0.00,,,0.01,WUHU216HW,2013-07-09 23:25:00,
2013-07-09 19:26:00,85.5,76.3,29.94,East,90,1.3,2.5,74,0.00,,,0.01,WUHU216HW,2013-07-09 23:26:00,
2013-07-09 19:27:00,85.5,76.3,29.94,East,90,0.0,2.5,74,0.00,,,0.01,WUHU216HW,2013-07-09 23:27:00,
2013-07-09 19:28:00,85.7,76.5,29.94,East,90,0.4,2.5,74,0.00,,,0.01,WUHU216HW,2013-07-09 23:28:00,
2013-07-09 19:29:00,85.7,76.5,29.94,East,90,1.6,2.5,74,0.00,,,0.01,WUHU216HW,2013-07-09 23:29:00,
2013-07-09 19:30:00,85.7,76.5,29.94,East,90,1.6,2.5,74,0.00,,,0.01,WUHU216HW,2013-07-09 23:30:00,
2013-07-09 19:33:00,85.7,76.5,29.94,East,90,0.4,2.2,74,0.00,,,0.01,WUHU216HW,2013-07-09 23:33:00,
2013-07-09 19:35:00,85.9,76.7,29.94,SE,135,0.8,1.6,74,0.00,,,0.01,WUHU216HW,2013-07-09 23:35:00,
2013-07-09 19:36:00,85.7,76.5,29.94,SE,135,0.7,1.6,74,0.00,,,0.01,WUHU216HW,2013-07-09 23:36:00,
2013-07-09 19:38:00,85.7,76.5,29.94,SSE,158,0.7,1.6,74,0.00,,,0.01,WUHU216HW,2013-07-09 23:38:00,
2013-07-09 19:39:00,85.7,76.5,29.94,SSE,158,0.7,0.9,74,0.00,,,0.01,WUHU216HW,2013-07-09 23:39:00,
2013-07-09 19:40:00,85.7,76.5,29.93,SSE,158,0.0,0.9,74,0.00,,,0.01,WUHU216HW,2013-07-09 23:40:00,
2013-07-09 19:41:00,85.7,76.5,29.94,SSE,158,0.0,0.9,74,0.00,,,0.01,WUHU216HW,2013-07-09 23:41:00,
2013-07-09 19:44:00,85.5,76.3,29.94,SSE,158,0.0,0.7,74,0.00,,,0.01,WUHU216HW,2013-07-09 23:44:00,
2013-07-09 19:45:00,85.5,76.3,29.94,SSE,158,0.0,0.7,74,0.00,,,0.01,WUHU216HW,2013-07-09 23:45:00,
2013-07-09 19:46:00,85.5,76.3,29.94,SSE,158,0.0,0.7,74,0.00,,,0.01,WUHU216HW,2013-07-09 23:46:00,
2013-07-09 19:47:00,85.5,76.3,29.94,SSE,158,0.0,0.7,74,0.00,,,0.01,WUHU216HW,2013-07-09 23:47:00,
2013-07-09 19:50:00,85.3,76.5,29.94,SSE,158,0.0,0.0,75,0.00,,,0.01,WUHU216HW,2013-07-09 23:50:00,
2013-07-09 19:51:00,85.1,76.3,29.94,SSE,158,0.0,0.0,75,0.00,,,0.01,WUHU216HW,2013-07-09 23:51:00,
2013-07-09 19:52:00,85.1,76.3,29.94,SSE,158,0.0,0.0,75,0.00,,,0.01,WUHU216HW,2013-07-09 23:52:00,
2013-07-09 19:53:00,85.1,76.3,29.94,SSE,158,0.0,0.0,75,0.00,,,0.01,WUHU216HW,2013-07-09 23:53:00,
2013-07-09 19:55:00,85.1,76.3,29.94,SSE,158,0.0,0.0,75,0.00,,,0.01,WUHU216HW,2013-07-09 23:55:00,
2013-07-09 19:56:00,85.0,76.5,29.94,SSE,158,0.0,0.0,76,0.00,,,0.01,WUHU216HW,2013-07-09 23:56:00,
2013-07-09 19:57:00,85.1,76.7,29.94,SSE,158,0.0,0.0,76,0.00,,,0.01,WUHU216HW,2013-07-09 23:57:00,
2013-07-09 19:58:00,85.1,76.7,29.94,SSE,158,0.0,0.0,76,0.00,,,0.01,WUHU216HW,2013-07-09 23:58:00,
2013-07-09 20:00:00,85.0,76.5,29.94,SSE,158,1.1,1.1,76,0.00,,,0.01,WUHU216HW,2013-07-10 00:00:00,
2013-07-09 20:01:00,85.0,76.5,29.94,SSE,158,1.1,1.1,76,0.00,,,0.01,WUHU216HW,2013-07-10 00:01:00,
2013-07-09 20:02:00,85.0,76.5,29.94,SSE,158,1.3,1.3,76,0.00,,,0.01,WUHU216HW,2013-07-10 00:02:00,
2013-07-09 20:04:00,85.0,76.5,29.94,SSE,148,1.1,1.3,76,0.00,,,0.01,WUHU216HW,2013-07-10 00:04:00,
2013-07-09 20:05:00,85.0,76.5,29.94,ESE,113,1.3,1.3,76,0.00,,,0.01,WUHU216HW,2013-07-10 00:05:00,
2013-07-09 20:06:00,85.0,76.5,29.94,ESE,113,0.8,1.3,76,0.00,,,0.01,WUHU216HW,2013-07-10 00:06:00,
2013-07-09 20:07:00,84.8,76.3,29.94,ESE,113,0.9,1.3,76,0.00,,,0.01,WUHU216HW,2013-07-10 00:07:00,
2013-07-09 20:08:00,84.8,76.3,29.94,ESE,113,0.6,1.3,76,0.00,,,0.01,WUHU216HW,2013-07-10 00:08:00,
2013-07-09 20:09:00,84.8,76.3,29.94,ESE,113,0.7,1.3,76,0.00,,,0.01,WUHU216HW,2013-07-10 00:09:00,
2013-07-09 20:11:00,84.6,76.1,29.94,SE,135,1.1,1.6,76,0.00,,,0.01,WUHU216HW,2013-07-10 00:11:00,
2013-07-09 20:13:00,84.6,76.1,29.94,SE,135,0.8,1.6,76,0.00,,,0.01,WUHU216HW,2013-07-10 00:13:00,
2013-07-09 20:14:00,84.6,76.6,29.94,SE,135,0.4,1.6,77,0.00,,,0.01,WUHU216HW,2013-07-10 00:14:00,
2013-07-09 20:15:00,84.6,76.6,29.94,SE,135,0.0,1.6,77,0.00,,,0.01,WUHU216HW,2013-07-10 00:15:00,
2013-07-09 20:16:00,84.6,76.6,29.94,SE,135,0.0,1.6,77,0.00,,,0.01,WUHU216HW,2013-07-10 00:16:00,
2013-07-09 20:18:00,84.6,76.6,29.94,SE,135,0.0,1.6,77,0.00,,,0.01,WUHU216HW,2013-07-10 00:18:00,
2013-07-09 20:19:00,84.8,76.8,29.94,SE,135,0.4,1.6,77,0.00,,,0.01,WUHU216HW,2013-07-10 00:19:00,
2013-07-09 20:20:00,84.6,76.6,29.94,SE,135,1.1,1.1,77,0.00,,,0.01,WUHU216HW,2013-07-10 00:20:00,
2013-07-09 20:21:00,84.6,76.6,29.94,ESE,113,2.5,2.5,77,0.00,,,0.01,WUHU216HW,2013-07-10 00:21:00,
2013-07-09 20:22:00,84.6,76.6,29.94,ESE,120,1.9,2.5,77,0.00,,,0.01,WUHU216HW,2013-07-10 00:22:00,
2013-07-09 20:23:00,84.6,76.6,29.94,SE,135,0.8,2.5,77,0.00,,,0.01,WUHU216HW,2013-07-10 00:23:00,
2013-07-09 20:24:00,84.6,76.6,29.94,East,90,1.1,2.5,77,0.00,,,0.01,WUHU216HW,2013-07-10 00:24:00,
2013-07-09 20:26:00,84.4,76.4,29.94,SE,135,1.1,2.5,77,0.00,,,0.01,WUHU216HW,2013-07-10 00:26:00,
2013-07-09 20:27:00,84.2,76.2,29.94,SE,135,0.8,2.5,77,0.00,,,0.01,WUHU216HW,2013-07-10 00:27:00,
2013-07-09 20:28:00,84.2,76.6,29.94,SE,135,0.4,2.5,78,0.00,,,0.01,WUHU216HW,2013-07-10 00:28:00,
2013-07-09 20:29:00,84.2,76.6,29.94,SE,135,0.4,2.5,78,0.00,,,0.01,WUHU216HW,2013-07-10 00:29:00,
2013-07-09 20:30:00,84.2,76.6,29.95,SE,135,0.0,2.5,78,0.00,,,0.01,WUHU216HW,2013-07-10 00:30:00,
2013-07-09 20:32:00,84.1,76.4,29.95,SE,135,0.8,1.3,78,0.00,,,0.01,WUHU216HW,2013-07-10 00:32:00,
2013-07-09 20:33:00,83.9,76.3,29.95,SE,135,0.3,1.3,78,0.00,,,0.01,WUHU216HW,2013-07-10 00:33:00,
2013-07-09 20:35:00,83.9,76.3,29.95,SE,135,0.0,1.3,78,0.00,,,0.01,WUHU216HW,2013-07-10 00:35:00,
2013-07-09 20:37:00,83.9,76.3,29.95,SE,135,1.1,1.3,78,0.00,,,0.01,WUHU216HW,2013-07-10 00:37:00,
2013-07-09 20:38:00,83.7,76.5,29.95,SE,135,0.8,1.3,79,0.00,,,0.01,WUHU216HW,2013-07-10 00:38:00,
2013-07-09 20:41:00,83.5,76.3,29.95,SE,135,1.1,1.1,79,0.00,,,0.01,WUHU216HW,2013-07-10 00:41:00,
2013-07-09 20:42:00,83.5,76.3,29.95,SE,135,1.1,1.1,79,0.00,,,0.01,WUHU216HW,2013-07-10 00:42:00,
2013-07-09 20:43:00,83.5,76.3,29.95,SE,135,0.9,1.1,79,0.00,,,0.01,WUHU216HW,2013-07-10 00:43:00,
2013-07-09 20:44:00,83.5,76.3,29.96,SE,135,0.6,1.1,79,0.00,,,0.01,WUHU216HW,2013-07-10 00:44:00,
2013-07-09 20:47:00,83.2,76.1,29.96,SE,135,0.4,1.3,79,0.00,,,0.01,WUHU216HW,2013-07-10 00:47:00,
2013-07-09 20:49:00,83.2,76.1,29.96,SE,126,1.5,1.8,79,0.00,,,0.01,WUHU216HW,2013-07-10 00:49:00,
2013-07-09 20:51:00,83.2,76.1,29.96,ESE,113,0.8,1.8,79,0.00,,,0.01,WUHU216HW,2013-07-10 00:51:00,
2013-07-09 20:53:00,82.8,75.7,29.96,SE,135,0.6,2.0,79,0.00,,,0.01,WUHU216HW,2013-07-10 00:53:00,
2013-07-09 20:54:00,82.8,75.7,29.96,SE,135,1.3,2.0,79,0.00,,,0.01,WUHU216HW,2013-07-10 00:54:00,
2013-07-09 20:56:00,82.6,76.0,29.96,SE,135,0.0,2.0,80,0.00,,,0.01,WUHU216HW,2013-07-10 00:56:00,
2013-07-09 20:57:00,82.4,75.8,29.96,SE,135,0.0,2.0,80,0.00,,,0.01,WUHU216HW,2013-07-10 00:57:00,
2013-07-09 20:59:00,82.4,75.8,29.96,SE,135,0.0,2.0,80,0.00,,,0.01,WUHU216HW,2013-07-10 00:59:00,
2013-07-09 21:00:00,82.4,75.8,29.96,SE,135,0.0,2.0,80,0.00,,,0.01,WUHU216HW,2013-07-10 01:00:00,
2013-07-09 21:01:00,82.3,75.6,29.96,SE,135,0.0,1.3,80,0.00,,,0.01,WUHU216HW,2013-07-10 01:01:00,
2013-07-09 21:03:00,82.1,75.4,29.96,SE,135,0.0,1.3,80,0.00,,,0.01,WUHU216HW,2013-07-10 01:03:00,
2013-07-09 21:04:00,82.1,75.4,29.97,SE,135,0.0,0.0,80,0.00,,,0.01,WUHU216HW,2013-07-10 01:04:00,
2013-07-09 21:05:00,81.9,75.2,29.96,SE,135,0.0,0.0,80,0.00,,,0.01,WUHU216HW,2013-07-10 01:05:00,
2013-07-09 21:06:00,81.9,75.2,29.96,SE,135,0.0,0.0,80,0.00,,,0.01,WUHU216HW,2013-07-10 01:06:00,
2013-07-09 21:07:00,81.9,75.6,29.96,SE,135,0.0,0.0,81,0.00,,,0.01,WUHU216HW,2013-07-10 01:07:00,
2013-07-09 21:08:00,81.7,75.4,29.96,SE,135,0.0,0.0,81,0.00,,,0.01,WUHU216HW,2013-07-10 01:08:00,
2013-07-09 21:10:00,81.5,75.3,29.96,SE,135,0.0,0.0,81,0.00,,,0.01,WUHU216HW,2013-07-10 01:10:00,
2013-07-09 21:11:00,81.5,75.3,29.96,SE,135,0.7,0.7,81,0.00,,,0.01,WUHU216HW,2013-07-10 01:11:00,
2013-07-09 21:13:00,81.4,74.7,29.96,SE,135,0.4,0.7,80,0.00,,,0.01,WUHU216HW,2013-07-10 01:13:00,
2013-07-09 21:14:00,81.2,74.5,29.96,SE,135,0.4,0.7,80,0.00,,,0.01,WUHU216HW,2013-07-10 01:14:00,
2013-07-09 21:15:00,81.2,74.5,29.96,SE,135,0.0,0.7,80,0.00,,,0.01,WUHU216HW,2013-07-10 01:15:00,
2013-07-09 21:18:00,80.8,74.5,29.96,SE,135,0.6,0.7,81,0.00,,,0.01,WUHU216HW,2013-07-10 01:18:00,
2013-07-09 21:19:00,80.6,74.4,29.96,SE,135,0.4,0.7,81,0.00,,,0.01,WUHU216HW,2013-07-10 01:19:00,
2013-07-09 21:20:00,80.6,74.4,29.96,SE,135,0.4,0.7,81,0.00,,,0.01,WUHU216HW,2013-07-10 01:20:00,
2013-07-09 21:24:00,80.3,74.0,29.96,SE,135,0.0,0.7,81,0.00,,,0.01,WUHU216HW,2013-07-10 01:24:00,
2013-07-09 21:25:00,80.3,74.0,29.96,SE,135,0.0,0.7,81,0.00,,,0.01,WUHU216HW,2013-07-10 01:25:00,
2013-07-09 21:26:00,80.3,74.0,29.96,SE,135,0.7,0.7,81,0.00,,,0.01,WUHU216HW,2013-07-10 01:26:00,
2013-07-09 21:31:00,79.9,74.0,29.96,SE,135,0.9,0.9,82,0.00,,,0.01,WUHU216HW,2013-07-10 01:31:00,
2013-07-09 21:32:00,79.9,74.0,29.96,SE,135,0.9,0.9,82,0.00,,,0.01,WUHU216HW,2013-07-10 01:32:00,
2013-07-09 21:37:00,79.4,73.5,29.96,SE,135,0.2,0.9,82,0.00,,,0.01,WUHU216HW,2013-07-10 01:37:00,
2013-07-09 21:38:00,79.4,73.5,29.96,SE,135,0.0,0.9,82,0.00,,,0.01,WUHU216HW,2013-07-10 01:38:00,
2013-07-09 21:39:00,79.4,73.8,29.96,SE,135,0.0,0.9,83,0.00,,,0.01,WUHU216HW,2013-07-10 01:39:00,
2013-07-09 21:42:00,79.0,73.5,29.96,SE,135,0.0,0.9,83,0.00,,,0.01,WUHU216HW,2013-07-10 01:42:00,
2013-07-09 21:43:00,79.0,73.5,29.96,SE,135,0.0,0.4,83,0.00,,,0.01,WUHU216HW,2013-07-10 01:43:00,
2013-07-09 21:44:00,79.0,73.5,29.97,SE,135,0.0,0.4,83,0.00,,,0.01,WUHU216HW,2013-07-10 01:44:00,
2013-07-09 21:45:00,78.8,73.3,29.96,SE,135,0.0,0.2,83,0.00,,,0.01,WUHU216HW,2013-07-10 01:45:00,
2013-07-09 21:47:00,78.8,73.3,29.96,SE,135,0.0,0.0,83,0.00,,,0.01,WUHU216HW,2013-07-10 01:47:00,
2013-07-09 21:48:00,78.7,73.4,29.96,SE,135,0.0,0.0,84,0.00,,,0.01,WUHU216HW,2013-07-10 01:48:00,
2013-07-09 21:49:00,78.7,73.4,29.96,SE,135,0.0,0.0,84,0.00,,,0.01,WUHU216HW,2013-07-10 01:49:00,
2013-07-09 21:50:00,78.7,73.4,29.96,SE,135,0.0,0.0,84,0.00,,,0.01,WUHU216HW,2013-07-10 01:50:00,
2013-07-09 21:53:00,78.5,73.3,29.97,SE,135,0.3,0.9,84,0.00,,,0.01,WUHU216HW,2013-07-10 01:53:00,
2013-07-09 21:54:00,78.5,73.3,29.97,SE,135,0.3,0.9,84,0.00,,,0.01,WUHU216HW,2013-07-10 01:54:00,
2013-07-09 21:55:00,78.3,73.1,29.97,SE,135,0.0,0.9,84,0.00,,,0.01,WUHU216HW,2013-07-10 01:55:00,
2013-07-09 21:56:00,78.3,73.4,29.97,SE,135,0.0,0.9,85,0.00,,,0.01,WUHU216HW,2013-07-10 01:56:00,
2013-07-09 21:58:00,78.1,73.3,29.97,SE,135,0.0,0.9,85,0.00,,,0.01,WUHU216HW,2013-07-10 01:58:00,
2013-07-09 21:59:00,78.1,73.3,29.97,SE,135,0.0,0.9,85,0.00,,,0.01,WUHU216HW,2013-07-10 01:59:00,
2013-07-09 22:00:00,78.1,73.3,29.97,SE,135,0.0,0.9,85,0.00,,,0.01,WUHU216HW,2013-07-10 02:00:00,
2013-07-09 22:01:00,78.1,73.3,29.96,SE,135,0.0,0.4,85,0.00,,,0.01,WUHU216HW,2013-07-10 02:01:00,
2013-07-09 22:05:00,77.9,73.1,29.96,SE,135,0.0,0.0,85,0.00,,,0.01,WUHU216HW,2013-07-10 02:05:00,
2013-07-09 22:06:00,77.9,73.1,29.96,SE,135,0.0,0.0,85,0.00,,,0.01,WUHU216HW,2013-07-10 02:06:00,
2013-07-09 22:07:00,77.9,73.1,29.96,SE,135,0.0,0.0,85,0.00,,,0.01,WUHU216HW,2013-07-10 02:07:00,
2013-07-09 22:10:00,77.8,72.9,29.97,SE,135,0.0,0.0,85,0.00,,,0.01,WUHU216HW,2013-07-10 02:10:00,
2013-07-09 22:11:00,77.8,72.9,29.97,SE,135,0.0,0.0,85,0.00,,,0.01,WUHU216HW,2013-07-10 02:11:00,
2013-07-09 22:12:00,77.8,72.9,29.97,SE,135,0.0,0.0,85,0.00,,,0.01,WUHU216HW,2013-07-10 02:12:00,
2013-07-09 22:13:00,77.8,72.9,29.97,SE,135,0.0,0.0,85,0.00,,,0.01,WUHU216HW,2013-07-10 02:13:00,
2013-07-09 22:16:00,77.6,73.1,29.96,SE,135,0.0,0.0,86,0.00,,,0.01,WUHU216HW,2013-07-10 02:16:00,
2013-07-09 22:17:00,77.6,73.1,29.96,SE,135,0.0,0.0,86,0.00,,,0.01,WUHU216HW,2013-07-10 02:17:00,
2013-07-09 22:18:00,77.6,73.1,29.97,SE,135,0.0,0.0,86,0.00,,,0.01,WUHU216HW,2013-07-10 02:18:00,
2013-07-09 22:20:00,77.4,72.9,29.96,SE,135,0.0,0.0,86,0.00,,,0.01,WUHU216HW,2013-07-10 02:20:00,
2013-07-09 22:21:00,77.4,72.9,29.96,SE,135,0.0,0.0,86,0.00,,,0.01,WUHU216HW,2013-07-10 02:21:00,
2013-07-09 22:22:00,77.4,72.9,29.97,SE,135,0.0,0.0,86,0.00,,,0.01,WUHU216HW,2013-07-10 02:22:00,
2013-07-09 22:24:00,77.4,73.3,29.97,SE,135,0.0,0.0,87,0.00,,,0.01,WUHU216HW,2013-07-10 02:24:00,
2013-07-09 22:25:00,77.2,73.1,29.97,SE,135,0.0,0.0,87,0.00,,,0.01,WUHU216HW,2013-07-10 02:25:00,
2013-07-09 22:26:00,77.2,73.1,29.97,SE,135,0.0,0.0,87,0.00,,,0.01,WUHU216HW,2013-07-10 02:26:00,
2013-07-09 22:27:00,77.2,73.1,29.97,SE,135,0.0,0.0,87,0.00,,,0.01,WUHU216HW,2013-07-10 02:27:00,
2013-07-09 22:28:00,77.2,73.1,29.97,SE,135,0.0,0.0,87,0.00,,,0.01,WUHU216HW,2013-07-10 02:28:00,
2013-07-09 22:29:00,77.0,72.9,29.96,SE,135,0.0,0.0,87,0.00,,,0.01,WUHU216HW,2013-07-10 02:29:00,
2013-07-09 22:31:00,77.0,72.9,29.96,SE,135,0.0,0.0,87,0.00,,,0.01,WUHU216HW,2013-07-10 02:31:00,
2013-07-09 22:33:00,77.0,72.9,29.96,SE,135,0.0,0.0,87,0.00,,,0.01,WUHU216HW,2013-07-10 02:33:00,
2013-07-09 22:35:00,76.9,72.7,29.96,SE,135,0.0,0.0,87,0.00,,,0.01,WUHU216HW,2013-07-10 02:35:00,
2013-07-09 22:36:00,76.9,72.7,29.96,SE,135,0.0,0.0,87,0.00,,,0.01,WUHU216HW,2013-07-10 02:36:00,
2013-07-09 22:37:00,76.9,72.7,29.96,SE,135,0.0,0.0,87,0.00,,,0.01,WUHU216HW,2013-07-10 02:37:00,
2013-07-09 22:39:00,76.7,72.5,29.97,SE,135,0.0,0.0,87,0.00,,,0.01,WUHU216HW,2013-07-10 02:39:00,
2013-07-09 22:40:00,76.7,72.5,29.96,SE,135,0.0,0.0,87,0.00,,,0.01,WUHU216HW,2013-07-10 02:40:00,
2013-07-09 22:41:00,76.7,72.5,29.96,SE,135,0.0,0.0,87,0.00,,,0.01,WUHU216HW,2013-07-10 02:41:00,
2013-07-09 22:44:00,76.5,72.7,29.96,SE,135,0.6,0.9,88,0.00,,,0.01,WUHU216HW,2013-07-10 02:44:00,
2013-07-09 22:45:00,76.5,72.7,29.96,SE,135,0.6,0.9,88,0.00,,,0.01,WUHU216HW,2013-07-10 02:45:00,
2013-07-09 22:46:00,76.5,72.7,29.96,SE,135,0.6,0.9,88,0.00,,,0.01,WUHU216HW,2013-07-10 02:46:00,
2013-07-09 22:47:00,76.5,72.7,29.96,SE,135,0.4,0.9,88,0.00,,,0.01,WUHU216HW,2013-07-10 02:47:00,
2013-07-09 22:50:00,76.3,72.5,29.96,SE,135,0.0,0.9,88,0.00,,,0.01,WUHU216HW,2013-07-10 02:50:00,
2013-07-09 22:52:00,76.3,72.5,29.96,SE,135,0.0,0.9,88,0.00,,,0.01,WUHU216HW,2013-07-10 02:52:00,
2013-07-09 22:53:00,76.3,72.5,29.96,SE,135,0.0,0.7,88,0.00,,,0.01,WUHU216HW,2013-07-10 02:53:00,
2013-07-09 22:55:00,76.1,72.4,29.96,SE,135,0.0,0.4,88,0.00,,,0.01,WUHU216HW,2013-07-10 02:55:00,
2013-07-09 22:56:00,76.1,72.4,29.96,SE,135,0.0,0.0,88,0.00,,,0.01,WUHU216HW,2013-07-10 02:56:00,
2013-07-09 22:57:00,76.1,72.4,29.96,SE,135,0.0,0.0,88,0.00,,,0.01,WUHU216HW,2013-07-10 02:57:00,
2013-07-09 22:58:00,76.1,72.4,29.96,SE,135,0.0,0.0,88,0.00,,,0.01,WUHU216HW,2013-07-10 02:58:00,
2013-07-09 23:01:00,76.0,72.2,29.96,SE,135,0.0,0.0,88,0.00,,,0.01,WUHU216HW,2013-07-10 03:01:00,
2013-07-09 23:03:00,76.0,72.2,29.96,SE,135,0.4,0.4,88,0.00,,,0.01,WUHU216HW,2013-07-10 03:03:00,
2013-07-09 23:04:00,76.0,72.2,29.96,SE,135,0.4,0.4,88,0.00,,,0.01,WUHU216HW,2013-07-10 03:04:00,
2013-07-09 23:05:00,76.0,72.2,29.96,SE,135,0.4,0.4,88,0.00,,,0.01,WUHU216HW,2013-07-10 03:05:00,
2013-07-09 23:07:00,75.8,72.0,29.96,SE,135,0.0,0.4,88,0.00,,,0.01,WUHU216HW,2013-07-10 03:07:00,
2013-07-09 23:08:00,75.8,72.0,29.96,SE,135,0.0,0.4,88,0.00,,,0.01,WUHU216HW,2013-07-10 03:08:00,
2013-07-09 23:09:00,75.8,72.0,29.96,SE,135,0.0,0.4,88,0.00,,,0.01,WUHU216HW,2013-07-10 03:09:00,
2013-07-09 23:11:00,75.8,72.0,29.96,SE,135,0.0,0.4,88,0.00,,,0.01,WUHU216HW,2013-07-10 03:11:00,
2013-07-09 23:14:00,75.6,72.2,29.96,SE,135,0.0,0.4,89,0.00,,,0.01,WUHU216HW,2013-07-10 03:14:00,
2013-07-09 23:15:00,75.6,72.2,29.96,SE,135,0.0,0.0,89,0.00,,,0.01,WUHU216HW,2013-07-10 03:15:00,
2013-07-09 23:16:00,75.6,72.2,29.96,SE,135,0.0,0.0,89,0.00,,,0.01,WUHU216HW,2013-07-10 03:16:00,
2013-07-09 23:20:00,75.6,72.2,29.96,SE,135,0.0,0.0,89,0.00,,,0.01,WUHU216HW,2013-07-10 03:20:00,
2013-07-09 23:21:00,75.6,72.2,29.96,SE,135,0.0,0.0,89,0.00,,,0.01,WUHU216HW,2013-07-10 03:21:00,
2013-07-09 23:22:00,75.6,72.2,29.96,SE,135,0.0,0.0,89,0.00,,,0.01,WUHU216HW,2013-07-10 03:22:00,
2013-07-09 23:23:00,75.6,72.2,29.96,SE,135,0.0,0.0,89,0.00,,,0.01,WUHU216HW,2013-07-10 03:23:00,
2013-07-09 23:26:00,75.6,72.2,29.96,SE,135,0.0,0.0,89,0.00,,,0.01,WUHU216HW,2013-07-10 03:26:00,
2013-07-09 23:27:00,75.6,72.2,29.96,SE,135,0.0,0.0,89,0.00,,,0.01,WUHU216HW,2013-07-10 03:27:00,
2013-07-09 23:28:00,75.6,72.2,29.96,SE,135,0.0,0.0,89,0.00,,,0.01,WUHU216HW,2013-07-10 03:28:00,
2013-07-09 23:29:00,75.6,72.2,29.96,SE,135,0.0,0.0,89,0.00,,,0.01,WUHU216HW,2013-07-10 03:29:00,
2013-07-09 23:32:00,75.4,72.0,29.96,SE,135,0.0,0.0,89,0.00,,,0.01,WUHU216HW,2013-07-10 03:32:00,
2013-07-09 23:34:00,75.4,72.0,29.97,SE,135,0.0,0.0,89,0.00,,,0.01,WUHU216HW,2013-07-10 03:34:00,
2013-07-09 23:35:00,75.4,72.0,29.97,SE,135,0.0,0.0,89,0.00,,,0.01,WUHU216HW,2013-07-10 03:35:00,
2013-07-09 23:39:00,75.2,71.8,29.97,SE,135,0.0,0.0,89,0.00,,,0.01,WUHU216HW,2013-07-10 03:39:00,
2013-07-09 23:40:00,75.2,71.8,29.97,SE,135,0.0,0.0,89,0.00,,,0.01,WUHU216HW,2013-07-10 03:40:00,
2013-07-09 23:41:00,75.2,72.2,29.96,SE,135,0.0,0.0,90,0.00,,,0.01,WUHU216HW,2013-07-10 03:41:00,
2013-07-09 23:44:00,75.4,72.4,29.96,SE,135,0.0,0.0,90,0.00,,,0.01,WUHU216HW,2013-07-10 03:44:00,
2013-07-09 23:45:00,75.2,72.2,29.97,SE,135,0.0,0.0,90,0.00,,,0.01,WUHU216HW,2013-07-10 03:45:00,
2013-07-09 23:46:00,75.4,72.4,29.97,SE,135,0.0,0.0,90,0.00,,,0.01,WUHU216HW,2013-07-10 03:46:00,
2013-07-09 23:47:00,75.4,72.4,29.97,SE,135,0.0,0.0,90,0.00,,,0.01,WUHU216HW,2013-07-10 03:47:00,
2013-07-09 23:50:00,75.2,72.2,29.97,SE,135,0.0,0.0,90,0.00,,,0.01,WUHU216HW,2013-07-10 03:50:00,
2013-07-09 23:51:00,75.2,72.2,29.97,SE,135,1.3,1.3,90,0.00,,,0.01,WUHU216HW,2013-07-10 03:51:00,
2013-07-09 23:52:00,75.2,72.2,29.97,SE,135,0.8,1.3,90,0.00,,,0.01,WUHU216HW,2013-07-10 03:52:00,
2013-07-09 23:53:00,75.2,72.2,29.97,SE,135,0.8,1.3,90,0.00,,,0.01,WUHU216HW,2013-07-10 03:53:00,
2013-07-09 23:55:00,75.2,72.2,29.97,SE,135,0.6,1.3,90,0.00,,,0.01,WUHU216HW,2013-07-10 03:55:00,
2013-07-09 23:57:00,75.2,72.2,29.97,SE,135,0.7,1.3,90,0.00,,,0.01,WUHU216HW,2013-07-10 03:57:00,
2013-07-09 23:58:00,75.2,72.2,29.97,SE,135,0.0,1.3,90,0.00,,,0.01,WUHU216HW,2013-07-10 03:58:00,
2013-07-09 23:59:00,75.2,72.2,29.97,SE,135,0.0,1.3,90,0.00,,,0.01,WUHU216HW,2013-07-10 03:59:00,